Sigfox identifier Datetime Temperature Humidity SNR
003B5D8C 2019-04-12 12:32:33 23.7 13 24.2
003B5D8C 2019-04-12 12:02:45 23.5 14 24.2
003B5D8C 2019-04-12 11:32:23 23.3 14 24.4
003B5D8C 2019-04-12 11:02:34 23.1 14 23.7
003B5D8C 2019-04-12 10:32:47 23 15 23.1
003B5D8C 2019-04-12 10:02:59 22.9 15 23.2
003B5D8C 2019-04-12 09:33:10 22.8 15 23.2
003B5D8C 2019-04-12 09:03:19 22.7 15 23.3
003B5D8C 2019-04-12 08:33:28 22.7 14 23.4
003B5D8C 2019-04-12 08:03:37 22.7 14 23.4
003B5D8C 2019-04-12 07:33:46 22.7 15 23.5
003B5D8C 2019-04-12 07:03:56 22.6 15 23.4
003B5D8C 2019-04-12 06:34:05 22.6 16 22.8
003B5D8C 2019-04-12 06:04:14 22.6 16 23
003B5D8C 2019-04-12 05:34:24 22.7 16 22.9
003B5D8C 2019-04-12 05:04:32 22.6 16 22.9
003B5D8C 2019-04-12 04:34:40 22.6 16 22.8
003B5D8C 2019-04-12 04:04:48 22.6 16 22.7
003B5D8C 2019-04-12 03:34:57 22.7 16 22.9
003B5D8C 2019-04-12 03:05:06 22.8 16 23.1
003B5D8C 2019-04-12 02:35:15 22.8 16 23
003B5D8C 2019-04-12 02:05:24 22.8 16 22.9
003B5D8C 2019-04-12 01:35:34 22.8 16 22.8
003B5D8C 2019-04-12 01:05:44 22.9 16 22.7
003B5D8C 2019-04-12 00:35:52 22.9 16 22.7
003B5D8C 2019-04-12 00:06:00 22.9 17 22.6
003B5D8C 2019-04-11 23:36:08 23 17 22.4
003B5D8C 2019-04-11 23:06:16 23.1 17 22.2
003B5D8C 2019-04-11 22:36:24 23.1 17 22.2
003B5D8C 2019-04-11 22:06:32 23.1 17 22.2
003B5D8C 2019-04-11 21:36:38 23.2 16 22.1
003B5D8C 2019-04-11 21:06:43 23.2 16 22.2
003B5D8C 2019-04-11 20:36:50 23.3 16 22.2
003B5D8C 2019-04-11 20:06:56 23.3 16 22.1
003B5D8C 2019-04-11 19:37:05 23.3 15 22.3
003B5D8C 2019-04-11 19:07:14 23.3 15 22.5
003B5D8C 2019-04-11 18:37:24 23.4 15 22.7
003B5D8C 2019-04-11 18:07:32 23.5 14 22.7
003B5D8C 2019-04-11 17:37:42 23.5 14 22.7
003B5D8C 2019-04-11 17:07:50 23.6 13 22.8
003B5D8C 2019-04-11 16:38:00 23.6 14 23
003B5D8C 2019-04-11 16:08:10 23.6 14 23.1
003B5D8C 2019-04-11 15:38:19 23.5 14 23.2
003B5D8C 2019-04-11 15:08:30 23.3 15 23.2
003B5D8C 2019-04-11 14:38:39 23.2 15 23.8
003B5D8C 2019-04-11 14:08:48 23.1 15 23.9
003B5D8C 2019-04-11 13:38:58 23 14 24.2
003B5D8C 2019-04-11 13:09:06 23 14 24.3
003B5D8C 2019-04-11 12:39:15 23 14 24.9
003B5D8C 2019-04-11 12:09:23 23.1 14 24.9
003B5D8C 2019-04-11 11:39:31 23.2 14 25
003B5D8C 2019-04-11 11:09:40 23.4 15 25.2
003B5D8C 2019-04-11 11:08:30 23.1 15 25.3
003B5D8C 2019-04-11 10:38:38 23 15 25.4
003B5D8C 2019-04-11 10:08:45 22.8 15 25.5
003B5D8C 2019-04-11 09:38:54 22.8 15 25.6
003B5D8C 2019-04-11 09:09:02 22.6 15 25.5
003B5D8C 2019-04-11 08:39:11 22.4 15 25.6
003B5D8C 2019-04-11 08:09:19 22.4 15 25.7
003B5D8C 2019-04-11 07:39:26 22.3 16 25.7
003B5D8C 2019-04-11 07:09:35 22.3 16 25.6
003B5D8C 2019-04-11 06:39:43 22.3 16 25.6
003B5D8C 2019-04-11 06:09:50 22.3 16 25.6
003B5D8C 2019-04-11 05:39:58 22.3 16 25.5
003B5D8C 2019-04-11 05:10:08 22.3 16 25.6
003B5D8C 2019-04-11 04:40:17 22.3 16 25.7
003B5D8C 2019-04-11 04:10:25 22.3 16 25.7
003B5D8C 2019-04-11 03:40:33 22.3 16 25.7
003B5D8C 2019-04-11 03:10:41 22.4 16 25.7
003B5D8C 2019-04-11 02:40:49 22.4 16 25.4
003B5D8C 2019-04-11 02:10:55 22.4 16 25.4
003B5D8C 2019-04-11 01:41:01 22.4 16 25.2
003B5D8C 2019-04-11 01:11:07 22.5 16 25.2
003B5D8C 2019-04-11 00:41:11 22.5 16 24.7
003B5D8C 2019-04-11 00:11:16 22.6 16 24.7
003B5D8C 2019-04-10 23:41:20 22.6 17 24.6
003B5D8C 2019-04-10 23:11:24 22.6 17 24.5
003B5D8C 2019-04-10 22:41:28 22.6 16 24.7
003B5D8C 2019-04-10 22:11:31 22.5 16 24.7
003B5D8C 2019-04-10 21:41:36 22.6 16 24.6
003B5D8C 2019-04-10 21:11:39 22.6 16 25.1
003B5D8C 2019-04-10 20:41:45 22.6 16 25
003B5D8C 2019-04-10 20:11:48 22.6 16 24.9
003B5D8C 2019-04-10 19:41:53 22.6 16 24.9
003B5D8C 2019-04-10 19:11:58 22.6 16 25
003B5D8C 2019-04-10 18:42:04 22.6 15 25
003B5D8C 2019-04-10 18:12:09 22.8 14 25
003B5D8C 2019-04-10 17:42:14 22.8 15 24.9
003B5D8C 2019-04-10 17:12:18 23 15 25
003B5D8C 2019-04-10 16:42:24 22.9 16 25
003B5D8C 2019-04-10 16:12:29 23 16 25
003B5D8C 2019-04-10 15:42:36 22.9 16 25.1
003B5D8C 2019-04-10 15:12:43 22.9 17 25.1
003B5D8C 2019-04-10 14:42:52 22.8 17 25.1
003B5D8C 2019-04-10 14:13:00 22.7 17 25.2
003B5D8C 2019-04-10 13:43:08 22.8 17 25.2
003B5D8C 2019-04-10 13:13:16 22.8 16 25.4
003B5D8C 2019-04-10 12:43:22 22.8 17 25.7
003B5D8C 2019-04-10 12:13:30 22.8 17 25.8
003B5D8C 2019-04-10 11:43:37 23.1 16 25.9
003B5D8C 2019-04-10 11:13:44 23.6 16 26
003B5D8C 2019-04-10 10:43:50 23.9 32 25.9
003B5D8C 2019-04-10 10:32:41 23.6 18 25.9
003B5D8C 2019-04-10 10:20:00 23.2 16 25.9
003B5D8C 2019-04-10 09:50:11 23.2 17 25.9
003B5D8C 2019-04-10 09:20:21 22.6 18 25.9
003B5D8C 2019-04-10 08:50:30 22.3 19 26
003B5D8C 2019-04-10 08:20:38 22.1 18 26
003B5D8C 2019-04-10 07:50:48 22.1 19 26.1
003B5D8C 2019-04-10 07:20:58 22.1 20 26
003B5D8C 2019-04-10 06:51:06 22.1 20 26
003B5D8C 2019-04-10 06:21:12 22.1 21 25.9
003B5D8C 2019-04-10 05:51:20 22.1 21 26
003B5D8C 2019-04-10 05:21:27 22.1 21 25.9
003B5D8C 2019-04-10 04:51:34 22.1 21 25.8
003B5D8C 2019-04-10 04:21:40 22 21 25.7
003B5D8C 2019-04-10 03:51:47 22 21 25.5
003B5D8C 2019-04-10 03:21:53 22 21 25.5
003B5D8C 2019-04-10 02:52:00 22.2 21 25.4
003B5D8C 2019-04-10 02:22:07 22.2 22 25.1
003B5D8C 2019-04-10 01:52:16 22.2 23 25
003B5D8C 2019-04-10 01:22:24 22.2 23 24.8
003B5D8C 2019-04-10 00:52:33 22.2 23 24.3
003B5D8C 2019-04-10 00:22:42 22.2 23 24.1
003B5D8C 2019-04-09 23:52:51 22.2 24 23.9
003B5D8C 2019-04-09 23:23:00 22.2 24 23.7
003B5D8C 2019-04-09 22:53:09 22.2 24 23.5
003B5D8C 2019-04-09 22:23:18 22.3 24 23.2
003B5D8C 2019-04-09 21:53:28 22.3 25 23.2
003B5D8C 2019-04-09 21:23:38 22.3 25 22.9
003B5D8C 2019-04-09 20:53:47 22.3 25 22
003B5D8C 2019-04-09 20:23:57 22.3 25 21.6
003B5D8C 2019-04-09 19:54:06 22.4 25 21.3
003B5D8C 2019-04-09 19:24:18 22.5 24 21.1
003B5D8C 2019-04-09 18:54:29 22.6 24 20.9
003B5D8C 2019-04-09 18:24:40 22.9 24 20.6
003B5D8C 2019-04-09 17:54:52 23.2 24 20.8
003B5D8C 2019-04-09 17:25:04 23.1 24 20.5
003B5D8C 2019-04-09 16:55:16 23.1 24 20.2
003B5D8C 2019-04-09 16:25:28 23.4 23 20.2
003B5D8C 2019-04-09 15:55:39 23.5 24 19.9
003B5D8C 2019-04-09 15:25:50 23.8 23 19.9
003B5D8C 2019-04-09 14:56:00 23.7 23 20.1
003B5D8C 2019-04-09 14:26:12 24.3 22 20.3
003B5D8C 2019-04-09 13:56:23 24.3 30 20.5
003B5D8C 2019-04-09 13:26:32 20.9 26 20.5
003B5D8C 2019-04-09 12:56:41 20.9 26 20.8
003B5D8C 2019-04-09 12:26:52 20.9 26 20.9
003B5D8C 2019-04-09 11:57:02 21 26 21.1
003B5D8C 2019-04-09 11:27:13 20.9 26 21.3
003B5D8C 2019-04-09 10:57:23 20.9 26 21.4
003B5D8C 2019-04-09 10:27:34 21 26 21.6
003B5D8C 2019-04-09 10:26:22 20.8 26 21.7
003B5D8C 2019-04-09 09:56:32 20.8 26 21.6
003B5D8C 2019-04-09 09:26:41 20.8 26 21.7
003B5D8C 2019-04-09 08:56:51 20.8 26 21.6
003B5D8C 2019-04-09 08:27:00 20.8 25 21.9
003B5D8C 2019-04-09 07:57:10 20.8 25 21.9
003B5D8C 2019-04-09 07:27:17 20.8 25 21.8
003B5D8C 2019-04-09 06:57:28 20.8 25 21.7
003B5D8C 2019-04-09 06:27:38 20.8 25 21.8
003B5D8C 2019-04-09 05:57:47 20.8 25 21.8
003B5D8C 2019-04-09 05:27:56 20.8 25 21.8
003B5D8C 2019-04-09 04:58:06 20.8 25 21.9
003B5D8C 2019-04-09 04:28:15 20.8 25 21.8
003B5D8C 2019-04-09 03:58:24 20.8 25 21.7
003B5D8C 2019-04-09 03:28:33 20.8 25 21.9
003B5D8C 2019-04-09 02:58:43 20.9 25 21.7
003B5D8C 2019-04-09 02:28:50 20.9 25 21.6
003B5D8C 2019-04-09 01:59:00 20.9 25 21.6
003B5D8C 2019-04-09 01:29:09 20.9 26 21.6
003B5D8C 2019-04-09 00:59:18 20.9 26 21.6
003B5D8C 2019-04-09 00:29:27 20.9 26 21.7
003B5D8C 2019-04-08 23:59:34 20.9 26 21.6
003B5D8C 2019-04-08 23:29:42 20.9 26 21.6
003B5D8C 2019-04-08 22:59:51 20.9 26 21.5
003B5D8C 2019-04-08 22:29:59 21 26 21.5
003B5D8C 2019-04-08 22:00:08 21 26 21.3
003B5D8C 2019-04-08 21:30:17 20.9 26 21.4
003B5D8C 2019-04-08 21:00:26 20.9 26 21.4
003B5D8C 2019-04-08 20:30:34 21 26 21.6
003B5D8C 2019-04-08 20:00:41 20.9 26 21.4
003B5D8C 2019-04-08 19:30:50 20.9 26 21.4
003B5D8C 2019-04-08 19:00:57 20.9 26 21.5
003B5D8C 2019-04-08 18:31:06 20.9 26 21.5
003B5D8C 2019-04-08 18:01:13 20.9 26 21.4
003B5D8C 2019-04-08 17:31:21 21 26 21.1
003B5D8C 2019-04-08 17:01:29 21 26 21.1
003B5D8C 2019-04-08 16:31:37 21 26 21.1
003B5D8C 2019-04-08 16:01:44 21 26 22.2
003B5D8C 2019-04-08 15:31:54 21 26 22.3
003B5D8C 2019-04-08 15:02:04 21 26 22.4
003B5D8C 2019-04-08 14:32:14 21 26 22.7
003B5D8C 2019-04-08 14:02:24 21 26 22.6
003B5D8C 2019-04-08 13:32:35 21 26 22.5
003B5D8C 2019-04-08 13:02:46 20.9 26 22.6
003B5D8C 2019-04-08 12:32:55 20.8 26 22.5
003B5D8C 2019-04-08 12:03:04 20.7 25 22.4
003B5D8C 2019-04-08 11:33:12 20.7 25 22.4
003B5D8C 2019-04-08 11:03:20 20.7 25 22.2
003B5D8C 2019-04-08 10:33:29 20.6 25 22.4
003B5D8C 2019-04-08 10:03:36 20.6 24 22.3
003B5D8C 2019-04-08 09:33:12 20.5 24 22.4
003B5D8C 2019-04-08 09:03:20 20.5 24 22.5
003B5D8C 2019-04-08 08:33:29 20.4 24 22.5
003B5D8C 2019-04-08 08:03:38 20.4 23 22.7
003B5D8C 2019-04-08 07:33:49 20.4 23 22.6
003B5D8C 2019-04-08 07:03:58 20.4 23 22.8
003B5D8C 2019-04-08 06:34:11 20.4 23 22.7
003B5D8C 2019-04-08 06:04:19 20.5 23 22.7
003B5D8C 2019-04-08 05:34:29 20.5 23 22.8
003B5D8C 2019-04-08 05:04:38 20.5 23 22.9
003B5D8C 2019-04-08 04:34:48 20.5 23 23
003B5D8C 2019-04-08 04:04:57 20.6 23 22.1
003B5D8C 2019-04-08 03:35:07 20.6 23 22
003B5D8C 2019-04-08 03:05:17 20.6 23 21.7
003B5D8C 2019-04-08 02:35:26 20.6 23 21.6
003B5D8C 2019-04-08 02:05:35 20.6 23 21.6
003B5D8C 2019-04-08 01:35:45 20.6 23 21.7
003B5D8C 2019-04-08 01:05:55 20.6 23 21.9
003B5D8C 2019-04-08 00:36:05 20.7 23 21.9
003B5D8C 2019-04-08 00:06:13 20.7 22 22
003B5D8C 2019-04-07 23:36:22 20.7 22 22
003B5D8C 2019-04-07 23:06:31 20.8 22 22
003B5D8C 2019-04-07 22:36:41 20.8 22 22
003B5D8C 2019-04-07 22:06:48 20.8 22 22.1
003B5D8C 2019-04-07 21:36:58 20.9 22 22.1
003B5D8C 2019-04-07 21:07:08 20.9 22 21.9
003B5D8C 2019-04-07 20:37:16 21 22 21.7
003B5D8C 2019-04-07 20:07:26 21 22 21.7
003B5D8C 2019-04-07 19:37:35 21 22 21.6
003B5D8C 2019-04-07 19:07:43 21 22 21.9
003B5D8C 2019-04-07 18:37:51 21 22 21.6
003B5D8C 2019-04-07 18:08:00 21 22 21.6
003B5D8C 2019-04-07 17:38:10 21 22 21.5
003B5D8C 2019-04-07 17:08:21 20.9 22 22.5
003B5D8C 2019-04-07 16:38:30 20.9 22 22.5
003B5D8C 2019-04-07 16:08:41 20.8 22 22.2
003B5D8C 2019-04-07 15:38:51 20.7 22 22.2
003B5D8C 2019-04-07 15:09:00 20.7 22 22.2
003B5D8C 2019-04-07 14:39:10 20.6 21 22.3
003B5D8C 2019-04-07 14:09:20 20.6 21 22.2
003B5D8C 2019-04-07 13:39:30 20.5 21 22.2
003B5D8C 2019-04-07 13:09:40 20.6 21 22.2
003B5D8C 2019-04-07 12:39:49 20.6 21 22
003B5D8C 2019-04-07 12:09:59 20.5 21 21.9
003B5D8C 2019-04-07 11:40:08 20.5 21 21.8
003B5D8C 2019-04-07 11:10:18 20.5 21 21.8
003B5D8C 2019-04-07 10:40:27 20.5 21 21.9
003B5D8C 2019-04-07 10:10:37 20.5 21 22.7
003B5D8C 2019-04-07 09:40:47 20.5 21 22.8
003B5D8C 2019-04-07 09:10:58 20.5 21 22.8
003B5D8C 2019-04-07 08:40:35 20.6 21 23.7
003B5D8C 2019-04-07 08:10:46 20.6 21 23.4
003B5D8C 2019-04-07 07:40:56 20.6 21 23.4
003B5D8C 2019-04-07 07:11:08 20.6 21 23.6
003B5D8C 2019-04-07 06:41:15 20.7 21 24.3
003B5D8C 2019-04-07 06:11:27 20.7 21 24.3
003B5D8C 2019-04-07 05:41:34 20.7 21 23.8
003B5D8C 2019-04-07 05:11:44 20.8 21 23.9
003B5D8C 2019-04-07 04:41:53 20.8 21 24
003B5D8C 2019-04-07 04:12:01 20.8 21 24
003B5D8C 2019-04-07 03:42:11 20.8 21 24.1
003B5D8C 2019-04-07 03:12:22 20.9 21 24
003B5D8C 2019-04-07 02:42:30 20.9 21 24.1
003B5D8C 2019-04-07 02:12:38 21 21 24.2
003B5D8C 2019-04-07 01:42:47 21 21 24.1
003B5D8C 2019-04-07 01:12:58 21.1 21 24.1
003B5D8C 2019-04-07 00:43:06 21.1 21 24.2
003B5D8C 2019-04-07 00:13:17 21.2 21 24.3
003B5D8C 2019-04-06 23:43:26 21.2 21 24.4
003B5D8C 2019-04-06 23:13:36 21.2 21 24.3
003B5D8C 2019-04-06 22:43:46 21.2 21 23.7
003B5D8C 2019-04-06 22:13:56 21.3 21 23.7
003B5D8C 2019-04-06 21:44:06 21.3 21 23.7
003B5D8C 2019-04-06 21:14:15 21.3 21 23.8
003B5D8C 2019-04-06 20:44:24 21.3 21 23.1
003B5D8C 2019-04-06 20:14:33 21.4 21 23
003B5D8C 2019-04-06 19:44:43 21.4 21 22.9
003B5D8C 2019-04-06 19:14:53 21.4 21 22.9
003B5D8C 2019-04-06 18:45:02 21.3 21 22.8
003B5D8C 2019-04-06 18:15:11 21.3 21 22
003B5D8C 2019-04-06 17:45:21 21.3 21 22.2
003B5D8C 2019-04-06 17:15:30 21.2 21 21.9
003B5D8C 2019-04-06 16:45:38 21.1 21 21.9
003B5D8C 2019-04-06 16:15:46 21 21 21.8
003B5D8C 2019-04-06 15:45:55 20.9 21 21.8
003B5D8C 2019-04-06 15:16:03 20.8 21 21.8
003B5D8C 2019-04-06 14:46:11 20.7 21 21.9
003B5D8C 2019-04-06 14:16:21 20.7 21 21.8
003B5D8C 2019-04-06 13:46:30 20.7 21 21.7
003B5D8C 2019-04-06 13:16:39 20.7 21 21.8
003B5D8C 2019-04-06 12:46:48 20.7 21 21.8
003B5D8C 2019-04-06 12:16:59 20.6 20 21.7
003B5D8C 2019-04-06 11:47:08 20.7 20 21.8
003B5D8C 2019-04-06 11:17:17 20.6 20 21.7
003B5D8C 2019-04-06 10:47:26 20.6 20 21.8
003B5D8C 2019-04-06 10:17:35 20.7 20 21.8
003B5D8C 2019-04-06 09:47:44 20.6 20 21.7
003B5D8C 2019-04-06 09:17:55 20.7 20 21.4
003B5D8C 2019-04-06 08:48:04 20.7 20 21.3
003B5D8C 2019-04-06 08:18:14 20.7 20 21.4
003B5D8C 2019-04-06 07:47:49 20.7 20 21.7
003B5D8C 2019-04-06 07:17:58 20.7 20 21.6
003B5D8C 2019-04-06 06:48:08 20.8 20 21.6
003B5D8C 2019-04-06 06:18:17 20.8 20 21.3
003B5D8C 2019-04-06 05:48:26 20.9 20 21.2
003B5D8C 2019-04-06 05:18:34 20.9 20 21.3
003B5D8C 2019-04-06 04:48:42 21 20 21.1
003B5D8C 2019-04-06 04:18:52 21 20 21.2
003B5D8C 2019-04-06 03:49:01 21 20 21.1
003B5D8C 2019-04-06 03:19:11 21.1 20 20.8
003B5D8C 2019-04-06 02:49:21 21.1 20 20.6
003B5D8C 2019-04-06 02:19:29 21.2 20 20.6
003B5D8C 2019-04-06 01:49:39 21.2 20 20.5
003B5D8C 2019-04-06 01:19:48 21.3 20 20.6
003B5D8C 2019-04-06 00:49:58 21.4 19 20.6
003B5D8C 2019-04-06 00:20:09 21.5 19 20.3
003B5D8C 2019-04-05 23:50:17 21.5 19 20.1
003B5D8C 2019-04-05 23:20:27 21.6 19 20
003B5D8C 2019-04-05 22:50:35 21.7 19 19.9
003B5D8C 2019-04-05 22:20:45 21.8 19 20.1
003B5D8C 2019-04-05 21:50:55 21.9 19 20
003B5D8C 2019-04-05 21:21:07 21.9 19 19.9
003B5D8C 2019-04-05 20:51:17 21.9 19 19.7
003B5D8C 2019-04-05 20:21:26 21.9 19 19.6
003B5D8C 2019-04-05 19:51:37 22 19 19.3
003B5D8C 2019-04-05 19:21:46 21.9 19 19.1
003B5D8C 2019-04-05 18:51:57 21.8 19 19.1
003B5D8C 2019-04-05 18:22:06 21.7 19 20.8
003B5D8C 2019-04-05 17:52:15 21.8 19 20.8
003B5D8C 2019-04-05 17:22:24 21.7 19 20.7
003B5D8C 2019-04-05 16:52:33 21.7 20 20.8
003B5D8C 2019-04-05 16:22:43 21.7 21 20.8
003B5D8C 2019-04-05 15:52:52 21.6 21 20.8
003B5D8C 2019-04-05 15:23:04 21.5 21 21
003B5D8C 2019-04-05 14:53:14 21.5 21 21.2
003B5D8C 2019-04-05 14:23:24 21.4 21 21.2
003B5D8C 2019-04-05 13:53:35 21.3 22 21.2
003B5D8C 2019-04-05 13:23:45 21.3 21 21.3
003B5D8C 2019-04-05 12:53:54 21.3 22 21.2
003B5D8C 2019-04-05 12:24:04 21.3 22 21.4
003B5D8C 2019-04-05 11:54:13 21.3 22 21.6
003B5D8C 2019-04-05 11:24:23 21.3 22 21.5
003B5D8C 2019-04-05 10:54:32 21.2 22 21.7
003B5D8C 2019-04-05 10:24:42 21.2 21 21.6
003B5D8C 2019-04-05 09:54:52 21.1 20 21.3
003B5D8C 2019-04-05 09:25:01 21.1 20 21.2
003B5D8C 2019-04-05 08:55:10 21.1 19 21.2
003B5D8C 2019-04-05 08:25:21 21.1 19 21.3
003B5D8C 2019-04-05 07:55:30 21.1 19 21.2
003B5D8C 2019-04-05 07:25:38 21.1 19 21.1
003B5D8C 2019-04-05 06:55:14 21.1 19 21.3
003B5D8C 2019-04-05 06:25:23 21.2 19 19.9
003B5D8C 2019-04-05 05:55:33 21.2 19 19.8
003B5D8C 2019-04-05 05:25:43 21.2 19 19.8
003B5D8C 2019-04-05 04:55:53 21.2 19 19.6
003B5D8C 2019-04-05 04:26:03 21.2 19 19.6
003B5D8C 2019-04-05 03:56:13 21.3 19 19.5
003B5D8C 2019-04-05 03:26:24 21.3 19 19.5
003B5D8C 2019-04-05 02:56:34 21.3 19 19.4
003B5D8C 2019-04-05 02:26:44 21.4 19 21
003B5D8C 2019-04-05 01:56:54 21.4 19 21
003B5D8C 2019-04-05 01:27:03 21.5 19 20.9
003B5D8C 2019-04-05 00:57:13 21.5 19 20.9
003B5D8C 2019-04-05 00:27:24 21.5 19 20.8
003B5D8C 2019-04-04 23:57:33 21.5 19 20.5
003B5D8C 2019-04-04 23:27:43 21.6 19 20.5
003B5D8C 2019-04-04 22:57:53 21.6 19 20.2
003B5D8C 2019-04-04 22:28:04 21.6 18 20.4
003B5D8C 2019-04-04 21:58:14 21.6 18 21.7
003B5D8C 2019-04-04 21:28:26 21.6 18 21.7
003B5D8C 2019-04-04 20:58:37 21.7 18 21.9
003B5D8C 2019-04-04 20:28:48 21.6 18 21.8
003B5D8C 2019-04-04 19:58:59 21.6 18 21.8
003B5D8C 2019-04-04 19:29:10 21.6 18 21.8
003B5D8C 2019-04-04 18:59:22 21.5 18 21.7
003B5D8C 2019-04-04 18:29:33 21.6 18 21.6
003B5D8C 2019-04-04 17:59:45 21.6 18 21.6
003B5D8C 2019-04-04 17:29:56 21.6 19 21.9
003B5D8C 2019-04-04 17:00:07 21.6 19 21.9
003B5D8C 2019-04-04 16:30:18 21.5 19 21.8
003B5D8C 2019-04-04 16:00:29 21.5 19 21.9
003B5D8C 2019-04-04 15:30:40 21.4 20 21.8
003B5D8C 2019-04-04 15:00:49 21.3 20 21.8
003B5D8C 2019-04-04 14:30:58 21.3 20 21.7
003B5D8C 2019-04-04 14:01:06 21.2 20 20.5
003B5D8C 2019-04-04 13:31:14 21.2 20 20.6
003B5D8C 2019-04-04 13:01:24 21.1 20 20.7
003B5D8C 2019-04-04 12:31:34 21.1 20 20.6
003B5D8C 2019-04-04 12:01:44 21.1 20 20.6
003B5D8C 2019-04-04 11:31:53 21.1 20 20.6
003B5D8C 2019-04-04 11:02:02 21.1 20 20.6
003B5D8C 2019-04-04 10:32:08 21 20 20.6
003B5D8C 2019-04-04 10:02:13 21 20 20.5
003B5D8C 2019-04-04 09:32:20 21 20 18.8
003B5D8C 2019-04-04 09:02:27 21 20 18.8
003B5D8C 2019-04-04 08:32:35 21 20 18.7
003B5D8C 2019-04-04 08:02:42 21 20 18.8
003B5D8C 2019-04-04 07:32:50 21.1 20 18.7
003B5D8C 2019-04-04 07:02:56 21.1 20 18.7
003B5D8C 2019-04-04 06:33:04 21.1 20 18.7
003B5D8C 2019-04-04 06:02:39 21.2 20 18.3
003B5D8C 2019-04-04 05:32:47 21.2 20 18.3
003B5D8C 2019-04-04 05:02:55 21.2 20 18.3
003B5D8C 2019-04-04 04:33:01 21.3 20 18.1
003B5D8C 2019-04-04 04:03:08 21.3 20 18.1
003B5D8C 2019-04-04 03:33:16 21.3 20 18.2
003B5D8C 2019-04-04 03:03:24 21.3 20 18.2
003B5D8C 2019-04-04 02:33:32 21.4 20 18.4
003B5D8C 2019-04-04 02:03:42 21.4 20 18.4
003B5D8C 2019-04-04 01:33:52 21.5 20 18.3
003B5D8C 2019-04-04 01:04:01 21.5 19 18.1
003B5D8C 2019-04-04 00:34:12 21.5 19 18.3
003B5D8C 2019-04-04 00:04:22 21.6 19 18.6
003B5D8C 2019-04-03 23:34:32 21.6 19 18.7
003B5D8C 2019-04-03 23:04:44 21.7 19 18.7
003B5D8C 2019-04-03 22:34:51 21.7 19 18.8
003B5D8C 2019-04-03 22:05:01 21.7 19 18.7
003B5D8C 2019-04-03 21:35:09 21.8 19 18.7
003B5D8C 2019-04-03 21:05:20 21.8 19 18.4
003B5D8C 2019-04-03 20:35:29 21.8 19 18.8
003B5D8C 2019-04-03 20:05:38 21.8 19 19.1
003B5D8C 2019-04-03 19:35:48 21.8 19 19.1
003B5D8C 2019-04-03 19:05:59 21.8 19 19.3
003B5D8C 2019-04-03 18:36:09 21.8 19 19.2
003B5D8C 2019-04-03 18:06:20 21.9 19 19.2
003B5D8C 2019-04-03 17:36:31 21.9 20 19.5
003B5D8C 2019-04-03 17:06:41 21.9 21 19.7
003B5D8C 2019-04-03 16:07:00 21.7 21 19.7
003B5D8C 2019-04-03 15:37:10 21.6 21 19.7
003B5D8C 2019-04-03 15:07:19 21.5 21 19.8
003B5D8C 2019-04-03 14:37:27 21.4 21 19.6
003B5D8C 2019-04-03 14:07:36 21.3 21 19.5
003B5D8C 2019-04-03 13:37:45 21.3 21 19.5
003B5D8C 2019-04-03 13:07:54 21.2 21 19.4
003B5D8C 2019-04-03 12:38:05 21.2 20 19.5
003B5D8C 2019-04-03 12:08:15 21.2 21 19.5
003B5D8C 2019-04-03 11:38:24 21.2 21 19.5
003B5D8C 2019-04-03 11:08:34 21.1 21 19.4
003B5D8C 2019-04-03 10:38:44 21.1 21 19.7
003B5D8C 2019-04-03 10:08:54 21.1 21 19.7
003B5D8C 2019-04-03 09:39:04 21 21 19.7
003B5D8C 2019-04-03 09:09:13 20.9 20 19.8
003B5D8C 2019-04-03 08:39:21 20.9 20 19.9
003B5D8C 2019-04-03 08:09:29 20.9 20 19.8
003B5D8C 2019-04-03 07:39:38 20.9 20 19.7
003B5D8C 2019-04-03 07:09:47 20.9 20 19.6
003B5D8C 2019-04-03 06:39:56 20.9 20 19.7
003B5D8C 2019-04-03 06:10:06 20.9 20 19.7
003B5D8C 2019-04-03 05:40:16 20.9 20 19.7
003B5D8C 2019-04-03 05:09:52 21 19 19.6
003B5D8C 2019-04-03 04:40:02 21 19 19.4
003B5D8C 2019-04-03 04:10:11 21 19 19.3
003B5D8C 2019-04-03 03:40:20 21 19 19.3
003B5D8C 2019-04-03 03:10:31 21 19 19.3
003B5D8C 2019-04-03 02:40:41 21.1 19 19.1
003B5D8C 2019-04-03 02:10:51 21.1 19 19
003B5D8C 2019-04-03 01:41:00 21.1 19 18.9
003B5D8C 2019-04-03 01:11:10 21.1 19 18.9
003B5D8C 2019-04-03 00:41:18 21.2 19 18.7
003B5D8C 2019-04-03 00:11:29 21.2 19 20.4
003B5D8C 2019-04-02 23:41:38 21.3 19 20.3
003B5D8C 2019-04-02 23:11:47 21.3 19 20.2
003B5D8C 2019-04-02 22:41:55 21.4 18 21.4
003B5D8C 2019-04-02 22:12:04 21.4 18 21.5
003B5D8C 2019-04-02 21:42:13 21.4 18 21.3
003B5D8C 2019-04-02 21:12:21 21.5 18 21.4
003B5D8C 2019-04-02 20:42:30 21.5 18 21.4
003B5D8C 2019-04-02 20:12:38 21.5 18 21.4
003B5D8C 2019-04-02 19:42:47 21.5 18 21.3
003B5D8C 2019-04-02 19:12:56 21.5 18 21.3
003B5D8C 2019-04-02 18:43:07 21.5 18 21.4
003B5D8C 2019-04-02 18:13:15 21.5 18 21.5
003B5D8C 2019-04-02 17:43:24 21.5 18 21.5
003B5D8C 2019-04-02 17:13:31 21.6 19 21.6
003B5D8C 2019-04-02 16:43:40 21.6 20 21.6
003B5D8C 2019-04-02 16:13:49 21.5 20 21.6
003B5D8C 2019-04-02 15:43:59 21.4 21 21.8
003B5D8C 2019-04-02 15:14:09 21.3 22 21.9
003B5D8C 2019-04-02 14:44:18 21.2 22 22
003B5D8C 2019-04-02 14:14:27 21.1 23 22.2
003B5D8C 2019-04-02 13:44:36 21 23 22.2
003B5D8C 2019-04-02 13:14:45 20.9 22 22.3
003B5D8C 2019-04-02 12:44:54 20.9 22 22.3
003B5D8C 2019-04-02 12:15:03 20.9 22 22.5
003B5D8C 2019-04-02 11:45:13 20.9 22 21.4
003B5D8C 2019-04-02 11:15:23 20.9 22 21.5
003B5D8C 2019-04-02 10:45:33 20.8 22 21.5
003B5D8C 2019-04-02 10:15:43 20.9 21 20.2
003B5D8C 2019-04-02 09:45:53 20.8 21 20.2
003B5D8C 2019-04-02 09:16:03 20.8 21 20.2
003B5D8C 2019-04-02 08:46:12 20.8 20 20.3
003B5D8C 2019-04-02 08:16:19 20.8 20 20.5
003B5D8C 2019-04-02 07:46:28 20.8 20 21.7
003B5D8C 2019-04-02 07:16:37 20.8 19 21.7
003B5D8C 2019-04-02 06:46:45 20.8 19 21.6
003B5D8C 2019-04-02 06:16:54 20.8 19 21.4
003B5D8C 2019-04-02 05:47:04 20.8 19 21.3
003B5D8C 2019-04-02 05:17:17 20.8 19 21.2
003B5D8C 2019-04-02 04:47:25 20.9 19 21.1
003B5D8C 2019-04-02 04:17:01 20.9 19 22.2
003B5D8C 2019-04-02 03:47:11 20.9 19 22.1
003B5D8C 2019-04-02 03:17:21 20.9 18 22
003B5D8C 2019-04-02 02:47:32 20.9 18 21.8
003B5D8C 2019-04-02 02:17:42 21 18 21.7
003B5D8C 2019-04-02 01:47:50 21 18 21.7
003B5D8C 2019-04-02 01:17:58 21 18 21.7
003B5D8C 2019-04-02 00:48:07 21.1 18 21.6
003B5D8C 2019-04-02 00:18:16 21.1 18 21.5
003B5D8C 2019-04-01 23:48:25 21.1 17 21.4
003B5D8C 2019-04-01 23:18:34 21.2 17 21.3
003B5D8C 2019-04-01 22:48:43 21.2 17 21.4
003B5D8C 2019-04-01 22:18:52 21.2 17 21.4
003B5D8C 2019-04-01 21:49:02 21.3 17 21.4
003B5D8C 2019-04-01 21:19:12 21.3 17 21.4
003B5D8C 2019-04-01 20:49:20 21.3 17 21.2
003B5D8C 2019-04-01 20:19:29 21.3 17 21.1
003B5D8C 2019-04-01 19:49:38 21.3 17 19.5
003B5D8C 2019-04-01 19:19:47 21.2 17 19.5
003B5D8C 2019-04-01 18:49:55 21.2 16 19.7
003B5D8C 2019-04-01 18:20:04 21.3 16 20
003B5D8C 2019-04-01 17:50:15 21.3 17 20
003B5D8C 2019-04-01 17:20:26 21.3 17 20
003B5D8C 2019-04-01 16:50:36 21.2 17 20
003B5D8C 2019-04-01 16:20:46 21.1 18 20
003B5D8C 2019-04-01 15:50:56 21 18 17.8
003B5D8C 2019-04-01 15:21:06 20.9 18 17.8
003B5D8C 2019-04-01 14:51:15 20.8 19 17.9
003B5D8C 2019-04-01 14:21:25 20.7 20 18.1
003B5D8C 2019-04-01 13:51:34 20.7 20 18
003B5D8C 2019-04-01 13:21:47 20.7 20 18.3
003B5D8C 2019-04-01 12:51:54 20.7 21 18.5
003B5D8C 2019-04-01 12:22:02 20.6 21 18.5
003B5D8C 2019-04-01 11:52:11 20.7 21 18.5
003B5D8C 2019-04-01 11:22:21 20.6 22 18.6
003B5D8C 2019-04-01 10:52:29 20.6 22 18.9
003B5D8C 2019-04-01 10:22:39 20.6 22 18.9
003B5D8C 2019-04-01 09:52:48 20.6 22 18.9
003B5D8C 2019-04-01 09:22:57 20.6 22 18.6
003B5D8C 2019-04-01 08:53:08 20.6 22 18.7
003B5D8C 2019-04-01 08:23:17 20.5 23 18.8
003B5D8C 2019-04-01 07:53:26 20.6 23 19
003B5D8C 2019-04-01 07:23:40 20.6 23 19
003B5D8C 2019-04-01 06:53:44 20.6 23 19
003B5D8C 2019-04-01 06:23:55 20.6 23 18.9
003B5D8C 2019-04-01 05:54:05 20.6 23 20.4
003B5D8C 2019-04-01 05:24:14 20.6 23 20.5
003B5D8C 2019-04-01 04:54:21 20.6 23 20.5
003B5D8C 2019-04-01 04:24:31 20.6 23 20.6
003B5D8C 2019-04-01 03:54:41 20.6 23 20.6
003B5D8C 2019-04-01 03:24:16 20.6 24 21.1
003B5D8C 2019-04-01 02:54:25 20.6 24 21.1
003B5D8C 2019-04-01 02:24:34 20.6 24 22.1
003B5D8C 2019-04-01 01:54:43 20.6 24 22.3
003B5D8C 2019-04-01 01:24:50 20.7 24 22.2
003B5D8C 2019-04-01 00:54:59 20.7 24 22
003B5D8C 2019-04-01 00:25:08 20.7 25 22.1
003B5D8C 2019-03-31 23:55:17 20.8 25 23
003B5D8C 2019-03-31 23:25:27 20.8 25 23
003B5D8C 2019-03-31 22:55:39 20.8 25 22.9
003B5D8C 2019-03-31 22:25:48 20.8 26 23
003B5D8C 2019-03-31 21:55:55 20.9 26 23.1
003B5D8C 2019-03-31 21:26:04 20.9 26 23.2
003B5D8C 2019-03-31 20:56:14 20.9 27 23.3
003B5D8C 2019-03-31 20:26:25 20.9 27 23.2
003B5D8C 2019-03-31 19:56:35 20.9 27 23.2
003B5D8C 2019-03-31 19:26:44 20.9 27 23.3
003B5D8C 2019-03-31 18:56:54 20.9 27 23.4
003B5D8C 2019-03-31 18:27:03 20.8 28 23.4
003B5D8C 2019-03-31 17:57:13 20.8 28 22.7
003B5D8C 2019-03-31 17:27:22 20.7 28 22.8
003B5D8C 2019-03-31 16:57:32 20.7 28 22.8
003B5D8C 2019-03-31 16:27:41 20.7 27 22.9
003B5D8C 2019-03-31 15:57:52 20.7 27 22.9
003B5D8C 2019-03-31 15:28:03 20.7 27 22.8
003B5D8C 2019-03-31 14:58:13 20.7 27 22.7
003B5D8C 2019-03-31 14:28:23 20.7 27 22.7
003B5D8C 2019-03-31 13:58:32 20.7 27 21.9
003B5D8C 2019-03-31 13:28:42 20.7 27 21.7
003B5D8C 2019-03-31 12:58:51 20.7 27 21.8
003B5D8C 2019-03-31 12:29:01 20.7 27 21.8
003B5D8C 2019-03-31 11:59:10 20.7 27 21.8
003B5D8C 2019-03-31 11:29:20 20.7 27 20.7
003B5D8C 2019-03-31 10:59:28 20.7 28 20.9
003B5D8C 2019-03-31 10:29:36 20.7 27 20.7
003B5D8C 2019-03-31 09:59:44 20.7 27 20.6
003B5D8C 2019-03-31 09:29:53 20.6 27 20.4
003B5D8C 2019-03-31 09:00:02 20.7 27 20.5
003B5D8C 2019-03-31 08:30:11 20.7 28 20.4
003B5D8C 2019-03-31 08:00:19 20.7 28 20.7
003B5D8C 2019-03-31 07:30:28 20.7 28 20.7
003B5D8C 2019-03-31 07:00:35 20.7 28 20.7
003B5D8C 2019-03-31 06:30:42 20.7 28 21.8
003B5D8C 2019-03-31 06:00:50 20.7 28 21.8
003B5D8C 2019-03-31 05:30:57 20.7 28 21.5
003B5D8C 2019-03-31 05:01:05 20.7 28 21.5
003B5D8C 2019-03-31 04:31:12 20.7 28 21.5
003B5D8C 2019-03-31 04:01:20 20.7 28 21.5
003B5D8C 2019-03-31 02:31:27 20.7 27 21.4
003B5D8C 2019-03-31 02:01:35 20.7 27 21.3
003B5D8C 2019-03-31 01:31:09 20.7 27 21.7
003B5D8C 2019-03-31 01:01:17 20.8 27 21.9
003B5D8C 2019-03-31 00:31:25 20.8 27 22
003B5D8C 2019-03-31 00:01:32 20.8 27 21.8
003B5D8C 2019-03-30 23:31:43 20.8 27 21.8
003B5D8C 2019-03-30 23:01:52 20.8 27 21.8
003B5D8C 2019-03-30 22:32:01 20.9 27 21.6
003B5D8C 2019-03-30 22:02:09 20.9 27 21.5
003B5D8C 2019-03-30 21:32:16 20.9 27 21.6
003B5D8C 2019-03-30 21:02:25 20.9 27 21.6
003B5D8C 2019-03-30 20:32:33 21 27 21.8
003B5D8C 2019-03-30 20:02:43 21 27 21.6
003B5D8C 2019-03-30 19:32:54 21 27 21.6
003B5D8C 2019-03-30 19:03:01 21 27 21.4
003B5D8C 2019-03-30 18:33:10 21 27 21.3
003B5D8C 2019-03-30 18:03:19 21 27 21.1
003B5D8C 2019-03-30 17:33:29 21.1 27 19.7
003B5D8C 2019-03-30 17:03:38 21.1 27 19.7
003B5D8C 2019-03-30 16:33:47 21.1 27 19.8
003B5D8C 2019-03-30 16:03:56 21.1 27 21.1
003B5D8C 2019-03-30 15:34:04 21.1 27 21.2
003B5D8C 2019-03-30 15:04:14 21 27 21.2
003B5D8C 2019-03-30 14:34:24 21 27 21.5
003B5D8C 2019-03-30 14:04:35 20.9 27 21.5
003B5D8C 2019-03-30 13:34:45 20.9 27 21.4
003B5D8C 2019-03-30 13:04:56 20.9 27 21.4
003B5D8C 2019-03-30 12:35:04 20.9 27 21
003B5D8C 2019-03-30 12:05:13 20.8 27 21
003B5D8C 2019-03-30 11:35:22 20.8 27 21
003B5D8C 2019-03-30 11:05:30 20.8 27 21
003B5D8C 2019-03-30 10:35:38 20.8 27 20.9
003B5D8C 2019-03-30 10:05:47 20.8 27 21
003B5D8C 2019-03-30 09:35:55 20.8 27 21.2
003B5D8C 2019-03-30 09:06:04 20.8 27 21.1
003B5D8C 2019-03-30 08:36:13 20.7 27 21.1
003B5D8C 2019-03-30 08:06:22 20.7 27 21
003B5D8C 2019-03-30 07:36:31 20.8 27 21
003B5D8C 2019-03-30 07:06:42 20.8 27 21.2
003B5D8C 2019-03-30 06:36:50 20.8 27 21.4
003B5D8C 2019-03-30 06:06:59 20.8 27 21.5
003B5D8C 2019-03-30 05:37:08 20.8 27 21.6
003B5D8C 2019-03-30 05:07:17 20.8 27 21.7
003B5D8C 2019-03-30 04:37:25 20.8 28 21.7
003B5D8C 2019-03-30 04:07:33 20.9 28 20.6
003B5D8C 2019-03-30 03:37:41 20.9 28 20.5
003B5D8C 2019-03-30 03:07:49 20.9 28 20.4
003B5D8C 2019-03-30 02:37:58 20.9 28 20
003B5D8C 2019-03-30 02:08:07 20.9 28 20.2
003B5D8C 2019-03-30 01:38:15 20.9 28 19.9
003B5D8C 2019-03-30 01:08:23 21 28 19.7
003B5D8C 2019-03-30 00:37:56 21 28 19.5
003B5D8C 2019-03-30 00:08:04 21 28 19.5
003B5D8C 2019-03-29 23:38:13 21.1 28 19.6
003B5D8C 2019-03-29 23:08:22 21.1 28 19.5
003B5D8C 2019-03-29 22:38:29 21.1 28 19.4
003B5D8C 2019-03-29 22:08:38 21.1 28 19.1
003B5D8C 2019-03-29 21:38:48 21.1 28 19.1
003B5D8C 2019-03-29 21:08:58 21.1 28 19.1
003B5D8C 2019-03-29 20:39:06 21.1 28 19.1
003B5D8C 2019-03-29 20:09:16 21.1 28 20.7
003B5D8C 2019-03-29 19:39:25 21.1 28 20.4
003B5D8C 2019-03-29 19:09:32 21.1 28 20.3
003B5D8C 2019-03-29 18:39:40 21.1 28 20.2
003B5D8C 2019-03-29 18:09:49 21.1 28 20
003B5D8C 2019-03-29 17:39:57 21.1 28 20.2
003B5D8C 2019-03-29 17:10:05 21.2 28 19.9
003B5D8C 2019-03-29 16:40:16 21.2 28 19.8
003B5D8C 2019-03-29 16:10:24 21.2 28 19.9
003B5D8C 2019-03-29 15:40:33 21.2 28 19.7
003B5D8C 2019-03-29 15:10:43 21.2 28 19.7
003B5D8C 2019-03-29 14:40:52 21.2 28 20
003B5D8C 2019-03-29 14:11:01 21.2 28 19.7
003B5D8C 2019-03-29 13:41:10 21.1 28 19.8
003B5D8C 2019-03-29 13:11:20 21.1 27 20
003B5D8C 2019-03-29 12:41:26 21.1 27 20.2
003B5D8C 2019-03-29 12:11:38 21 27 20.4
003B5D8C 2019-03-29 11:41:45 21 27 20.4
003B5D8C 2019-03-29 11:11:56 21 27 20.5
003B5D8C 2019-03-29 10:42:05 21.1 27 20.7
003B5D8C 2019-03-29 10:12:15 21 27 20.7
003B5D8C 2019-03-29 09:42:25 21 27 20.9
003B5D8C 2019-03-29 09:12:36 20.9 26 21
003B5D8C 2019-03-29 08:42:45 20.9 26 21
003B5D8C 2019-03-29 08:12:56 20.9 25 20.9
003B5D8C 2019-03-29 07:43:05 20.8 25 19.3
003B5D8C 2019-03-29 07:13:15 20.8 25 19.3
003B5D8C 2019-03-29 06:43:25 20.8 25 19.2
003B5D8C 2019-03-29 06:13:35 20.8 25 19.2
003B5D8C 2019-03-29 05:43:45 20.9 25 19.2
003B5D8C 2019-03-29 05:13:54 20.9 25 19
003B5D8C 2019-03-29 04:44:03 20.9 25 19
003B5D8C 2019-03-29 04:14:11 21 25 19.1
003B5D8C 2019-03-29 03:44:21 21 25 18.9
003B5D8C 2019-03-29 03:14:29 21.1 25 18.7
003B5D8C 2019-03-29 02:44:39 21.1 25 18.7
003B5D8C 2019-03-29 02:14:48 21.1 25 18.8
003B5D8C 2019-03-29 01:44:57 21.1 25 18.9
003B5D8C 2019-03-29 01:15:07 21.1 25 18.6
003B5D8C 2019-03-29 00:45:17 21.1 25 18.4
003B5D8C 2019-03-29 00:15:27 21.1 24 18.2
003B5D8C 2019-03-28 23:45:04 21.2 24 18.4
003B5D8C 2019-03-28 23:15:14 21.1 24 18.2
003B5D8C 2019-03-28 22:45:27 21.2 24 18.3
003B5D8C 2019-03-28 22:15:35 21.2 24 18.1
003B5D8C 2019-03-28 21:45:44 21.2 24 18.3
003B5D8C 2019-03-28 21:15:54 21.3 24 18.3
003B5D8C 2019-03-28 20:46:04 21.2 24 18.4
003B5D8C 2019-03-28 20:16:14 21.3 24 18.5
003B5D8C 2019-03-28 19:46:23 21.2 24 18.7
003B5D8C 2019-03-28 19:16:33 21.2 24 18.8
003B5D8C 2019-03-28 18:46:42 21.2 24 18.6
003B5D8C 2019-03-28 18:16:51 21.2 24 18.8
003B5D8C 2019-03-28 17:46:59 21.3 24 18.8
003B5D8C 2019-03-28 17:17:07 21.3 24 18.8
003B5D8C 2019-03-28 16:47:15 21.3 24 18.9
003B5D8C 2019-03-28 16:17:22 21.2 24 19
003B5D8C 2019-03-28 15:47:31 21.2 23 19.1
003B5D8C 2019-03-28 15:17:40 21.2 23 19.1
003B5D8C 2019-03-28 14:47:48 21.2 23 19.2
003B5D8C 2019-03-28 14:17:56 21.1 23 18.9
003B5D8C 2019-03-28 13:48:05 21.1 22 18.9
003B5D8C 2019-03-28 13:18:15 21.1 22 18.9
003B5D8C 2019-03-28 12:48:24 21 22 19
003B5D8C 2019-03-28 12:18:34 21 21 19
003B5D8C 2019-03-28 11:48:44 21 21 18.9
003B5D8C 2019-03-28 11:18:54 21 21 18.8
003B5D8C 2019-03-28 10:49:03 20.9 21 18.9
003B5D8C 2019-03-28 10:19:11 20.9 21 18.9
003B5D8C 2019-03-28 09:49:22 20.9 20 18.8
003B5D8C 2019-03-28 09:19:31 20.9 20 18.6
003B5D8C 2019-03-28 08:49:40 20.9 20 18.5
003B5D8C 2019-03-28 08:19:49 20.9 19 18.6
003B5D8C 2019-03-28 07:49:58 20.8 19 18.6
003B5D8C 2019-03-28 07:20:09 20.8 19 18.4
003B5D8C 2019-03-28 06:50:18 20.8 19 18.4
003B5D8C 2019-03-28 06:20:27 20.8 19 18.7
003B5D8C 2019-03-28 05:50:34 20.8 19 20.4
003B5D8C 2019-03-28 05:20:44 20.8 19 20.4
003B5D8C 2019-03-28 04:50:53 20.9 19 20.4
003B5D8C 2019-03-28 04:21:03 20.8 19 20.2
003B5D8C 2019-03-28 03:51:13 20.8 18 20.2
003B5D8C 2019-03-28 03:21:23 20.9 18 20.2
003B5D8C 2019-03-28 02:51:33 20.9 18 20.1
003B5D8C 2019-03-28 02:21:41 20.9 18 20.2
003B5D8C 2019-03-28 01:51:50 20.9 18 20.1
003B5D8C 2019-03-28 01:21:59 20.9 18 20.1
003B5D8C 2019-03-28 00:52:10 21 17 20.4
003B5D8C 2019-03-28 00:22:21 21 17 21.7
003B5D8C 2019-03-27 23:52:31 21 17 22.7
003B5D8C 2019-03-27 23:22:39 21 17 23.4
003B5D8C 2019-03-27 22:52:16 21 17 24.1
003B5D8C 2019-03-27 22:22:26 21.1 16 24
003B5D8C 2019-03-27 21:52:36 21.1 16 24.6
003B5D8C 2019-03-27 21:22:46 21.1 16 24.6
003B5D8C 2019-03-27 20:52:57 21.1 16 24.7
003B5D8C 2019-03-27 20:23:06 21.2 16 24.7
003B5D8C 2019-03-27 19:53:14 21.2 16 24.7
003B5D8C 2019-03-27 19:23:25 21.2 16 24.8
003B5D8C 2019-03-27 18:53:35 21.2 15 24.9
003B5D8C 2019-03-27 18:23:46 21.3 15 24.9
003B5D8C 2019-03-27 17:53:55 21.3 16 24.4
003B5D8C 2019-03-27 17:24:06 21.3 16 24.4
003B5D8C 2019-03-27 16:54:17 21.4 16 24.5
003B5D8C 2019-03-27 16:24:27 21.4 16 24.6
003B5D8C 2019-03-27 15:54:39 21.4 16 24.7
003B5D8C 2019-03-27 15:24:50 21.3 16 24.7
003B5D8C 2019-03-27 14:55:00 21.2 16 24.7
003B5D8C 2019-03-27 14:25:11 21.1 16 24.8
003B5D8C 2019-03-27 13:55:20 21 16 24.8
003B5D8C 2019-03-27 13:25:28 21 16 24.8
003B5D8C 2019-03-27 12:55:37 20.9 16 24.7
003B5D8C 2019-03-27 12:25:46 20.9 15 24.2
003B5D8C 2019-03-27 11:55:55 20.8 15 23.5
003B5D8C 2019-03-27 11:26:05 20.8 15 22.7
003B5D8C 2019-03-27 10:56:13 20.8 15 21.8
003B5D8C 2019-03-27 10:26:23 20.8 15 21.7
003B5D8C 2019-03-27 09:56:33 20.8 15 21.8
003B5D8C 2019-03-27 09:26:42 20.7 15 20.4
003B5D8C 2019-03-27 08:56:51 20.7 14 20.4
003B5D8C 2019-03-27 08:27:00 20.7 14 20.4
003B5D8C 2019-03-27 07:57:10 20.7 14 20.3
003B5D8C 2019-03-27 07:27:18 20.7 14 20.4
003B5D8C 2019-03-27 06:57:24 20.7 14 20.1
003B5D8C 2019-03-27 06:27:33 20.7 14 19.8
003B5D8C 2019-03-27 05:57:40 20.7 14 19.5
003B5D8C 2019-03-27 05:27:49 20.7 14 19.5
003B5D8C 2019-03-27 04:57:59 20.7 14 19.3
003B5D8C 2019-03-27 04:28:09 20.7 14 19.2
003B5D8C 2019-03-27 03:58:19 20.8 14 19.3
003B5D8C 2019-03-27 03:28:28 20.8 14 18.9
003B5D8C 2019-03-27 02:58:39 20.8 14 18.8
003B5D8C 2019-03-27 02:28:48 20.8 14 18.8
003B5D8C 2019-03-27 01:58:58 20.9 14 18.4
003B5D8C 2019-03-27 01:29:09 20.9 14 18.7
003B5D8C 2019-03-27 00:59:19 20.9 14 19
003B5D8C 2019-03-27 00:29:29 20.9 14 19
003B5D8C 2019-03-26 23:59:39 21 14 18.9
003B5D8C 2019-03-26 23:29:49 21 14 18.8
003B5D8C 2019-03-26 22:59:58 21.1 14 18.8
003B5D8C 2019-03-26 22:30:10 21.1 14 18.7
003B5D8C 2019-03-26 21:59:48 21.1 14 18.7
003B5D8C 2019-03-26 21:29:59 21.2 14 18.8
003B5D8C 2019-03-26 21:00:09 21.2 14 18.9
003B5D8C 2019-03-26 20:30:20 21.2 14 19
003B5D8C 2019-03-26 20:00:30 21.3 14 19.4
003B5D8C 2019-03-26 19:30:38 21.3 14 19.6
003B5D8C 2019-03-26 19:00:48 21.2 13 19.6
003B5D8C 2019-03-26 18:30:57 21.3 13 19.8
003B5D8C 2019-03-26 18:01:08 21.4 14 20.1
003B5D8C 2019-03-26 17:31:16 21.4 14 20.2
003B5D8C 2019-03-26 17:01:25 21.4 14 20.4
003B5D8C 2019-03-26 16:31:34 21.4 14 20.5
003B5D8C 2019-03-26 16:01:43 21.4 14 20.4
003B5D8C 2019-03-26 15:31:52 21.3 15 20.5
003B5D8C 2019-03-26 15:02:02 21.2 15 20.5
003B5D8C 2019-03-26 14:32:13 21 15 20.6
003B5D8C 2019-03-26 14:02:23 20.9 16 20.7
003B5D8C 2019-03-26 13:32:32 20.8 16 20.6
003B5D8C 2019-03-26 13:02:43 20.8 16 20.5
003B5D8C 2019-03-26 12:32:52 20.7 16 20.6
003B5D8C 2019-03-26 12:03:01 20.7 16 20.7
003B5D8C 2019-03-26 11:33:10 20.6 17 20.9
003B5D8C 2019-03-26 11:03:19 20.7 17 21
003B5D8C 2019-03-26 10:33:28 20.7 17 20.9
003B5D8C 2019-03-26 10:03:38 20.6 18 20.9
003B5D8C 2019-03-26 09:33:48 20.7 18 20.9
003B5D8C 2019-03-26 09:03:59 20.6 19 21
003B5D8C 2019-03-26 08:34:08 20.6 19 20.8
003B5D8C 2019-03-26 08:04:17 20.7 20 20.8
003B5D8C 2019-03-26 07:34:25 20.6 20 20.5
003B5D8C 2019-03-26 07:04:34 20.6 20 20.3
003B5D8C 2019-03-26 06:34:43 20.6 20 20.2
003B5D8C 2019-03-26 06:04:53 20.6 20 20
003B5D8C 2019-03-26 05:35:01 20.7 20 19.8
003B5D8C 2019-03-26 05:05:10 20.6 20 19.6
003B5D8C 2019-03-26 04:35:18 20.7 20 19.3
003B5D8C 2019-03-26 04:05:28 20.7 20 19
003B5D8C 2019-03-26 03:35:38 20.7 20 19
003B5D8C 2019-03-26 03:05:47 20.7 20 18.9
003B5D8C 2019-03-26 02:35:56 20.7 20 20.6
003B5D8C 2019-03-26 02:06:04 20.7 20 20.5
003B5D8C 2019-03-26 01:36:13 20.7 20 20.3
003B5D8C 2019-03-26 01:06:19 20.7 20 20.5
003B5D8C 2019-03-26 00:36:28 20.7 20 20.6
003B5D8C 2019-03-26 00:06:34 20.8 20 20.5
003B5D8C 2019-03-25 23:36:42 20.8 20 20.5
003B5D8C 2019-03-25 23:06:52 20.8 20 20.4
003B5D8C 2019-03-25 22:37:01 20.9 21 20.2
003B5D8C 2019-03-25 22:07:10 20.9 20 20.3
003B5D8C 2019-03-25 21:37:19 20.9 20 20.5
003B5D8C 2019-03-25 21:06:56 20.9 20 20.5
003B5D8C 2019-03-25 20:37:07 21 20 20.6
003B5D8C 2019-03-25 20:07:13 21 20 20.6
003B5D8C 2019-03-25 19:37:21 21 20 20.7
003B5D8C 2019-03-25 19:07:31 21 20 20.8
003B5D8C 2019-03-25 18:37:40 21 21 20.7
003B5D8C 2019-03-25 18:07:48 21 21 20.7
003B5D8C 2019-03-25 17:37:55 21.1 22 20.8
003B5D8C 2019-03-25 17:08:01 21.1 22 21
003B5D8C 2019-03-25 16:38:10 21.1 23 21
003B5D8C 2019-03-25 16:08:18 21.1 23 21.2
003B5D8C 2019-03-25 15:38:25 21 23 21.3
003B5D8C 2019-03-25 15:08:34 21.1 24 21.3
003B5D8C 2019-03-25 14:38:41 21.1 24 20
003B5D8C 2019-03-25 14:08:45 21.1 24 20.3
003B5D8C 2019-03-25 13:38:50 21 24 20.5
003B5D8C 2019-03-25 13:08:56 20.9 24 20.4
003B5D8C 2019-03-25 12:39:02 20.8 23 20.6
003B5D8C 2019-03-25 12:09:08 20.8 23 20.8
003B5D8C 2019-03-25 11:39:13 20.8 24 20.9
003B5D8C 2019-03-25 11:09:19 20.7 24 21.2
003B5D8C 2019-03-25 10:39:26 20.6 24 21.5
003B5D8C 2019-03-25 10:09:33 20.5 24 21.7
003B5D8C 2019-03-25 09:39:41 20.4 23 21.6
003B5D8C 2019-03-25 09:09:49 20.3 23 21.7
003B5D8C 2019-03-25 08:39:56 20.3 23 21.6
003B5D8C 2019-03-25 08:10:05 20.3 23 21.7
003B5D8C 2019-03-25 07:40:14 20.3 23 21.8
003B5D8C 2019-03-25 07:10:22 20.3 23 21.8
003B5D8C 2019-03-25 06:40:32 20.3 23 21.9
003B5D8C 2019-03-25 06:10:42 20.3 23 22.2
003B5D8C 2019-03-25 05:40:52 20.3 23 22.2
003B5D8C 2019-03-25 05:11:03 20.3 23 22.2
003B5D8C 2019-03-25 04:41:14 20.4 23 22.2
003B5D8C 2019-03-25 04:11:23 20.4 23 22.3
003B5D8C 2019-03-25 03:41:34 20.4 23 22.4
003B5D8C 2019-03-25 03:11:43 20.4 23 22.3
003B5D8C 2019-03-25 02:41:53 20.4 23 22.4
003B5D8C 2019-03-25 02:12:03 20.4 23 22.4
003B5D8C 2019-03-25 01:42:12 20.5 23 22.3
003B5D8C 2019-03-25 01:12:22 20.5 23 22.2
003B5D8C 2019-03-25 00:42:31 20.5 23 22.2
003B5D8C 2019-03-25 00:12:41 20.6 23 22.2
003B5D8C 2019-03-24 23:42:49 20.7 23 22.1
003B5D8C 2019-03-24 23:12:57 20.7 23 22.3
003B5D8C 2019-03-24 22:43:06 20.8 23 22.3
003B5D8C 2019-03-24 22:13:15 20.8 23 22.1
003B5D8C 2019-03-24 21:43:24 20.8 23 22
003B5D8C 2019-03-24 21:13:33 20.9 23 22.2
003B5D8C 2019-03-24 20:43:42 20.9 23 22.3
003B5D8C 2019-03-24 20:13:19 20.9 23 22.4
003B5D8C 2019-03-24 19:43:29 21 23 22.5
003B5D8C 2019-03-24 19:13:41 21 23 22.7
003B5D8C 2019-03-24 18:43:49 21 23 22.7
003B5D8C 2019-03-24 18:13:58 21.1 23 22.6
003B5D8C 2019-03-24 17:44:08 21 23 22.6
003B5D8C 2019-03-24 17:14:18 21 23 22.6
003B5D8C 2019-03-24 16:44:28 21 24 22.7
003B5D8C 2019-03-24 16:14:38 20.9 24 22.7
003B5D8C 2019-03-24 15:44:48 20.8 24 22.8
003B5D8C 2019-03-24 15:14:56 20.7 24 23.1
003B5D8C 2019-03-24 14:45:05 20.5 24 23
003B5D8C 2019-03-24 14:15:14 20.4 24 23.1
003B5D8C 2019-03-24 13:45:23 20.3 24 23.2
003B5D8C 2019-03-24 13:15:32 20.3 24 23.3
003B5D8C 2019-03-24 12:45:43 20.3 23 23.4
003B5D8C 2019-03-24 12:15:53 20.3 24 23.4
003B5D8C 2019-03-24 11:46:04 20.3 23 23.4
003B5D8C 2019-03-24 11:16:15 20.3 23 23.3
003B5D8C 2019-03-24 10:46:24 20.3 23 23.2
003B5D8C 2019-03-24 10:16:33 20.3 23 23.1
003B5D8C 2019-03-24 09:46:42 20.3 23 23.3
003B5D8C 2019-03-24 09:16:51 20.3 23 23.1
003B5D8C 2019-03-24 08:47:00 20.3 23 23.1
003B5D8C 2019-03-24 08:17:09 20.3 23 23.2
003B5D8C 2019-03-24 07:47:18 20.3 23 23.3
003B5D8C 2019-03-24 07:17:27 20.3 23 23.1
003B5D8C 2019-03-24 06:47:36 20.3 23 23.7
003B5D8C 2019-03-24 06:17:45 20.3 23 23.6
003B5D8C 2019-03-24 05:47:54 20.3 23 23.6
003B5D8C 2019-03-24 05:18:03 20.3 23 23.7
003B5D8C 2019-03-24 04:48:12 20.3 23 23.7
003B5D8C 2019-03-24 04:18:21 20.3 23 23.7
003B5D8C 2019-03-24 03:48:29 20.3 23 23.7
003B5D8C 2019-03-24 03:18:38 20.3 23 23.5
003B5D8C 2019-03-24 02:48:46 20.3 23 23.4
003B5D8C 2019-03-24 02:18:56 20.3 23 23.5
003B5D8C 2019-03-24 01:49:05 20.3 23 23.5
003B5D8C 2019-03-24 01:19:14 20.3 23 23.4
003B5D8C 2019-03-24 00:49:23 20.3 23 23.4
003B5D8C 2019-03-24 00:19:30 20.3 23 23.3
003B5D8C 2019-03-23 23:49:38 20.4 23 23.3
003B5D8C 2019-03-23 23:19:45 20.3 22 23.2
003B5D8C 2019-03-23 22:49:53 20.4 22 23.3
003B5D8C 2019-03-23 22:20:00 20.4 22 23.3
003B5D8C 2019-03-23 21:50:08 20.4 22 23.5
003B5D8C 2019-03-23 21:20:16 20.4 22 24
003B5D8C 2019-03-23 20:50:25 20.4 22 24
003B5D8C 2019-03-23 20:20:34 20.4 22 23.9
003B5D8C 2019-03-23 19:50:42 20.4 22 23.9
003B5D8C 2019-03-23 19:20:17 20.4 22 23.9
003B5D8C 2019-03-23 18:50:26 20.4 22 23.3
003B5D8C 2019-03-23 18:20:34 20.4 21 23.3
003B5D8C 2019-03-23 17:50:42 20.4 21 23.3
003B5D8C 2019-03-23 17:20:51 20.4 21 23.3
003B5D8C 2019-03-23 16:51:00 20.4 21 23.1
003B5D8C 2019-03-23 16:21:08 20.4 21 23.1
003B5D8C 2019-03-23 15:51:17 20.4 21 22.9
003B5D8C 2019-03-23 15:21:25 20.4 21 23
003B5D8C 2019-03-23 14:51:33 20.4 21 22.9
003B5D8C 2019-03-23 14:21:41 20.4 21 22.9
003B5D8C 2019-03-23 13:51:51 20.4 21 22.8
003B5D8C 2019-03-23 13:22:01 20.4 21 22.7
003B5D8C 2019-03-23 12:52:10 20.5 21 22.7
003B5D8C 2019-03-23 12:22:18 20.5 20 22.7
003B5D8C 2019-03-23 11:52:28 20.5 20 22.6
003B5D8C 2019-03-23 11:22:38 20.5 20 22.7
003B5D8C 2019-03-23 10:52:46 20.5 20 22.6
003B5D8C 2019-03-23 10:22:58 20.5 20 22.6
003B5D8C 2019-03-23 09:53:09 20.5 20 22.6
003B5D8C 2019-03-23 09:23:20 20.5 20 21.5
003B5D8C 2019-03-23 08:53:29 20.5 20 21.5
003B5D8C 2019-03-23 08:23:38 20.5 20 21.5
003B5D8C 2019-03-23 07:53:45 20.5 20 21.3
003B5D8C 2019-03-23 07:23:53 20.5 20 21.3
003B5D8C 2019-03-23 06:54:00 20.5 20 21.2
003B5D8C 2019-03-23 06:24:08 20.5 19 21
003B5D8C 2019-03-23 05:54:16 20.5 19 21.1
003B5D8C 2019-03-23 05:24:22 20.6 19 20.9
003B5D8C 2019-03-23 04:54:30 20.6 19 20.8
003B5D8C 2019-03-23 04:24:38 20.6 19 20.8
003B5D8C 2019-03-23 03:54:47 20.6 19 20.9
003B5D8C 2019-03-23 03:24:55 20.7 19 21.1
003B5D8C 2019-03-23 02:55:04 20.7 19 21
003B5D8C 2019-03-23 02:25:12 20.7 19 21
003B5D8C 2019-03-23 01:55:20 20.8 19 20.7
003B5D8C 2019-03-23 01:25:29 20.8 18 20.9
003B5D8C 2019-03-23 00:55:37 20.9 18 20.9
003B5D8C 2019-03-23 00:25:45 21 18 20.9
003B5D8C 2019-03-22 23:55:52 21 18 20.7
003B5D8C 2019-03-22 23:25:58 21.1 18 20.7
003B5D8C 2019-03-22 22:56:05 21.2 18 20.5
003B5D8C 2019-03-22 22:26:12 21.2 18 20.4
003B5D8C 2019-03-22 21:56:19 21.3 18 20.3
003B5D8C 2019-03-22 21:26:27 21.3 18 20.3
003B5D8C 2019-03-22 20:56:36 21.4 18 20.5
003B5D8C 2019-03-22 20:26:44 21.3 17 20.4
003B5D8C 2019-03-22 19:56:51 21.3 17 20.4
003B5D8C 2019-03-22 19:27:00 21.3 17 20.4
003B5D8C 2019-03-22 18:57:07 21.3 17 20.5
003B5D8C 2019-03-22 18:26:46 21.3 17 20.6
003B5D8C 2019-03-22 17:56:55 21.3 17 20.5
003B5D8C 2019-03-22 17:27:03 21.3 16 20.6
003B5D8C 2019-03-22 16:57:11 21.3 16 20.6
003B5D8C 2019-03-22 16:27:18 21.2 16 20.5
003B5D8C 2019-03-22 15:57:26 21.1 17 20.6
003B5D8C 2019-03-22 15:27:34 21 17 20.6
003B5D8C 2019-03-22 14:57:41 20.9 18 20.4
003B5D8C 2019-03-22 14:27:49 20.8 18 20.4
003B5D8C 2019-03-22 13:57:57 20.7 19 20.7
003B5D8C 2019-03-22 13:28:03 20.7 19 20.5
003B5D8C 2019-03-22 12:58:10 20.7 19 20.3
003B5D8C 2019-03-22 12:28:17 20.7 20 20.5
003B5D8C 2019-03-22 11:58:26 20.7 20 20.5
003B5D8C 2019-03-22 11:28:31 20.7 21 20.4
003B5D8C 2019-03-22 10:58:37 20.7 21 20.8
003B5D8C 2019-03-22 10:28:44 20.7 21 20.8
003B5D8C 2019-03-22 09:58:51 20.7 22 20.8
003B5D8C 2019-03-22 09:29:00 20.7 22 20.5
003B5D8C 2019-03-22 08:59:09 20.7 23 20.3
003B5D8C 2019-03-22 08:29:18 20.7 23 20.3
003B5D8C 2019-03-22 07:59:25 20.7 24 20.4
003B5D8C 2019-03-22 07:29:33 20.7 24 20.4
003B5D8C 2019-03-22 06:59:41 20.7 24 20.2
003B5D8C 2019-03-22 06:29:47 20.7 25 20.1
003B5D8C 2019-03-22 05:59:56 20.7 25 20.2
003B5D8C 2019-03-22 05:30:04 20.7 25 20
003B5D8C 2019-03-22 05:00:13 20.7 26 19.8
003B5D8C 2019-03-22 04:30:20 20.7 26 19.8
003B5D8C 2019-03-22 04:00:29 20.7 26 19.9
003B5D8C 2019-03-22 03:30:38 20.7 26 19.7
003B5D8C 2019-03-22 03:00:46 20.7 27 19.5
003B5D8C 2019-03-22 02:30:54 20.8 27 19.7
003B5D8C 2019-03-22 02:01:04 20.8 27 20
003B5D8C 2019-03-22 01:31:12 20.8 27 20.1
003B5D8C 2019-03-22 01:01:21 20.8 28 20
003B5D8C 2019-03-22 00:31:28 20.9 28 20
003B5D8C 2019-03-22 00:01:35 20.8 28 19.9
003B5D8C 2019-03-21 23:31:44 20.9 28 19.9
003B5D8C 2019-03-21 23:01:53 20.9 28 20
003B5D8C 2019-03-21 22:32:02 20.9 28 19.7
003B5D8C 2019-03-21 22:02:12 20.9 28 19.7
003B5D8C 2019-03-21 21:32:22 21 28 19.7
003B5D8C 2019-03-21 21:02:31 21 28 19.6
003B5D8C 2019-03-21 20:32:40 21 28 19.6
003B5D8C 2019-03-21 20:02:47 21 28 19.5
003B5D8C 2019-03-21 19:32:56 21 28 19.3
003B5D8C 2019-03-21 19:03:04 21.1 28 19.4
003B5D8C 2019-03-21 18:33:13 21.1 28 19.5
003B5D8C 2019-03-21 18:03:21 21.1 28 19.4
003B5D8C 2019-03-21 17:32:56 21.2 28 19.3
003B5D8C 2019-03-21 17:03:05 21.2 27 19.4
003B5D8C 2019-03-21 16:33:13 21.3 28 19.6
003B5D8C 2019-03-21 16:03:21 21.3 28 19.6
003B5D8C 2019-03-21 15:33:29 21.3 28 19.7
003B5D8C 2019-03-21 15:03:38 21.3 28 19.7
003B5D8C 2019-03-21 14:33:46 21.2 27 19.8
003B5D8C 2019-03-21 14:03:54 21.1 27 19.6
003B5D8C 2019-03-21 13:34:01 21 26 19.4
003B5D8C 2019-03-21 13:04:09 20.9 26 19.4
003B5D8C 2019-03-21 12:34:17 20.9 25 21
003B5D8C 2019-03-21 12:04:24 20.8 25 21
003B5D8C 2019-03-21 11:34:33 20.8 25 20.9
003B5D8C 2019-03-21 11:04:41 20.8 25 20.8
003B5D8C 2019-03-21 10:34:49 20.7 25 20.7
003B5D8C 2019-03-21 10:04:57 20.7 25 20.8
003B5D8C 2019-03-21 09:35:06 20.6 25 20.8
003B5D8C 2019-03-21 09:05:15 20.6 25 20.8
003B5D8C 2019-03-21 08:35:23 20.6 25 20.9
003B5D8C 2019-03-21 08:05:32 20.6 25 20.9
003B5D8C 2019-03-21 07:35:40 20.6 25 20.9
003B5D8C 2019-03-21 07:05:48 20.6 25 20.9
003B5D8C 2019-03-21 06:35:57 20.6 25 22.1
003B5D8C 2019-03-21 06:06:04 20.6 25 22.2
003B5D8C 2019-03-21 05:36:12 20.6 25 22.3
003B5D8C 2019-03-21 05:06:19 20.6 25 22.3
003B5D8C 2019-03-21 04:36:27 20.6 26 22.3
003B5D8C 2019-03-21 04:06:36 20.7 26 22.2
003B5D8C 2019-03-21 03:36:44 20.6 26 22.2
003B5D8C 2019-03-21 03:06:53 20.7 26 22.2
003B5D8C 2019-03-21 02:37:02 20.7 26 22.2
003B5D8C 2019-03-21 02:07:10 20.7 26 22.1
003B5D8C 2019-03-21 01:37:17 20.7 26 21.9
003B5D8C 2019-03-21 01:07:24 20.7 26 21.8
003B5D8C 2019-03-21 00:37:32 20.7 26 22.1
003B5D8C 2019-03-21 00:07:38 20.7 26 21.2
003B5D8C 2019-03-20 23:37:45 20.7 26 21.3
003B5D8C 2019-03-20 23:07:55 20.7 26 21.3
003B5D8C 2019-03-20 22:38:03 20.7 26 21.4
003B5D8C 2019-03-20 22:08:14 20.8 26 21.5
003B5D8C 2019-03-20 21:38:23 20.8 26 21.5
003B5D8C 2019-03-20 21:08:33 20.8 26 21.6
003B5D8C 2019-03-20 20:38:43 20.8 26 21.7
003B5D8C 2019-03-20 20:08:51 20.8 26 21.6
003B5D8C 2019-03-20 19:38:59 20.8 26 21.7
003B5D8C 2019-03-20 19:09:07 20.9 26 21.7
003B5D8C 2019-03-20 18:39:15 20.9 26 21.9
003B5D8C 2019-03-20 18:09:25 21 26 20.7
003B5D8C 2019-03-20 17:39:33 21 26 20.6
003B5D8C 2019-03-20 17:09:42 21 26 20.7
003B5D8C 2019-03-20 16:39:18 21 26 20.8
003B5D8C 2019-03-20 16:09:27 21.1 26 20.8
003B5D8C 2019-03-20 15:39:36 21.1 26 20.8
003B5D8C 2019-03-20 15:09:45 21.1 25 20.8
003B5D8C 2019-03-20 14:39:54 21.1 25 20.8
003B5D8C 2019-03-20 14:10:01 21.1 25 20.9
003B5D8C 2019-03-20 13:40:10 21 25 22.1
003B5D8C 2019-03-20 13:10:18 21 25 22.2
003B5D8C 2019-03-20 12:40:25 20.9 25 22
003B5D8C 2019-03-20 12:10:32 20.9 25 21.8
003B5D8C 2019-03-20 11:40:40 20.9 25 21.7
003B5D8C 2019-03-20 11:10:47 20.8 25 21.7
003B5D8C 2019-03-20 10:40:55 20.7 25 21.7
003B5D8C 2019-03-20 10:11:01 20.6 25 21.6
003B5D8C 2019-03-20 09:41:09 20.6 25 21.5
003B5D8C 2019-03-20 09:11:16 20.6 25 21.5
003B5D8C 2019-03-20 08:41:25 20.5 25 21.5
003B5D8C 2019-03-20 08:11:33 20.6 26 21.5
003B5D8C 2019-03-20 07:41:41 20.6 26 21.4
003B5D8C 2019-03-20 07:11:49 20.6 26 21.4
003B5D8C 2019-03-20 06:42:00 20.6 27 21.2
003B5D8C 2019-03-20 06:12:07 20.6 27 21.2
003B5D8C 2019-03-20 05:42:15 20.6 27 21.2
003B5D8C 2019-03-20 05:12:23 20.6 27 21.1
003B5D8C 2019-03-20 04:42:30 20.6 27 21.2
003B5D8C 2019-03-20 04:12:37 20.6 27 21.1
003B5D8C 2019-03-20 03:42:45 20.6 27 21.2
003B5D8C 2019-03-20 03:12:53 20.6 27 21.3
003B5D8C 2019-03-20 02:43:01 20.6 28 21.6
003B5D8C 2019-03-20 02:13:11 20.6 28 21.6
003B5D8C 2019-03-20 01:43:19 20.6 28 21.6
003B5D8C 2019-03-20 01:13:26 20.7 28 21.6
003B5D8C 2019-03-20 00:43:35 20.7 28 21.7
003B5D8C 2019-03-20 00:13:44 20.7 28 21.8
003B5D8C 2019-03-19 23:43:53 20.7 28 21.9
003B5D8C 2019-03-19 23:14:02 20.8 28 22
003B5D8C 2019-03-19 22:44:12 20.8 28 21.9
003B5D8C 2019-03-19 22:14:21 20.8 29 22
003B5D8C 2019-03-19 21:44:30 20.8 29 22.1
003B5D8C 2019-03-19 21:14:37 20.9 29 22.2
003B5D8C 2019-03-19 20:44:46 20.9 29 22.4
003B5D8C 2019-03-19 20:14:56 20.9 29 22.2
003B5D8C 2019-03-19 19:45:06 20.9 29 22.3
003B5D8C 2019-03-19 19:15:16 21 29 22.3
003B5D8C 2019-03-19 18:45:25 21 29 22.5
003B5D8C 2019-03-19 18:15:37 21.1 29 22.6
003B5D8C 2019-03-19 17:45:44 21.2 30 22.7
003B5D8C 2019-03-19 17:15:52 21.2 30 23.5
003B5D8C 2019-03-19 16:46:01 21.2 30 23.6
003B5D8C 2019-03-19 16:16:11 21.2 30 23.6
003B5D8C 2019-03-19 15:45:48 21.1 30 23.6
003B5D8C 2019-03-19 15:15:58 21.1 29 23.6
003B5D8C 2019-03-19 14:46:08 21.2 29 23.5
003B5D8C 2019-03-19 14:16:18 21.2 29 23.4
003B5D8C 2019-03-19 13:46:27 21.1 29 23.5
003B5D8C 2019-03-19 13:16:35 21.1 29 22.7
003B5D8C 2019-03-19 12:46:44 21 29 22.6
003B5D8C 2019-03-19 12:16:54 21 29 22.7
003B5D8C 2019-03-19 11:46:59 20.9 29 22.7
003B5D8C 2019-03-19 11:17:09 20.9 29 22.7
003B5D8C 2019-03-19 10:47:18 20.8 29 22.8
003B5D8C 2019-03-19 10:17:29 20.7 28 22.8
003B5D8C 2019-03-19 09:47:38 20.7 28 22.9
003B5D8C 2019-03-19 09:17:47 20.6 27 22.9
003B5D8C 2019-03-19 08:47:56 20.6 27 22.8
003B5D8C 2019-03-19 08:18:06 20.6 27 22.9
003B5D8C 2019-03-19 07:48:16 20.6 27 23
003B5D8C 2019-03-19 07:18:27 20.6 27 23
003B5D8C 2019-03-19 06:48:38 20.6 27 22.8
003B5D8C 2019-03-19 06:18:51 20.6 27 22.6
003B5D8C 2019-03-19 05:49:01 20.6 27 22.5
003B5D8C 2019-03-19 05:19:12 20.6 27 21.7
003B5D8C 2019-03-19 04:49:22 20.6 27 21.6
003B5D8C 2019-03-19 04:19:33 20.6 27 21.7
003B5D8C 2019-03-19 03:49:44 20.6 27 21.4
003B5D8C 2019-03-19 03:19:53 20.6 27 21.4
003B5D8C 2019-03-19 02:50:02 20.6 27 21.5
003B5D8C 2019-03-19 02:20:11 20.6 27 21.6
003B5D8C 2019-03-19 01:50:20 20.6 27 21.8
003B5D8C 2019-03-19 01:20:28 20.6 27 21.6
003B5D8C 2019-03-19 00:50:37 20.6 27 21.8
003B5D8C 2019-03-19 00:20:47 20.6 27 21.9
003B5D8C 2019-03-18 23:50:56 20.7 27 21.7
003B5D8C 2019-03-18 23:21:04 20.7 27 22.7
003B5D8C 2019-03-18 22:51:12 20.7 27 22.7
003B5D8C 2019-03-18 22:21:22 20.7 27 22.6
003B5D8C 2019-03-18 21:51:30 20.7 27 22.4
003B5D8C 2019-03-18 21:21:39 20.7 27 22.3
003B5D8C 2019-03-18 20:51:47 20.7 27 22.1
003B5D8C 2019-03-18 20:21:56 20.7 27 21.9
003B5D8C 2019-03-18 19:52:03 20.8 27 21.9
003B5D8C 2019-03-18 19:22:12 20.8 27 21.7
003B5D8C 2019-03-18 18:52:21 20.8 27 21.8
003B5D8C 2019-03-18 18:22:31 20.9 27 21.6
003B5D8C 2019-03-18 17:52:40 20.9 27 21.7
003B5D8C 2019-03-18 17:22:48 21 27 21.7
003B5D8C 2019-03-18 16:52:58 21 27 21.5
003B5D8C 2019-03-18 16:23:07 21 27 21.4
003B5D8C 2019-03-18 15:53:17 20.9 27 21.2
003B5D8C 2019-03-18 15:23:25 20.9 27 21.2
003B5D8C 2019-03-18 14:53:02 20.9 27 21.1
003B5D8C 2019-03-18 14:23:12 20.9 27 21.1
003B5D8C 2019-03-18 13:53:20 20.8 27 20.8
003B5D8C 2019-03-18 13:23:30 20.8 27 20.8
003B5D8C 2019-03-18 12:53:39 20.8 27 20.5
003B5D8C 2019-03-18 12:23:47 20.8 27 20.3
003B5D8C 2019-03-18 11:53:57 20.8 27 21.4
003B5D8C 2019-03-18 11:24:06 20.7 27 20.1
003B5D8C 2019-03-18 10:54:16 20.7 27 19.8
003B5D8C 2019-03-18 10:24:25 20.7 27 19.9
003B5D8C 2019-03-18 09:54:33 20.7 27 19.9
003B5D8C 2019-03-18 09:24:41 20.7 27 19.9
003B5D8C 2019-03-18 08:54:50 20.6 27 19.9
003B5D8C 2019-03-18 08:24:59 20.6 27 19.9
003B5D8C 2019-03-18 07:55:10 20.6 27 19.8
003B5D8C 2019-03-18 07:25:20 20.6 27 19.9
003B5D8C 2019-03-18 06:55:29 20.6 27 19.7
003B5D8C 2019-03-18 06:25:39 20.6 27 19.7
003B5D8C 2019-03-18 05:55:49 20.6 27 19.6
003B5D8C 2019-03-18 05:25:58 20.6 27 19.5
003B5D8C 2019-03-18 04:56:12 20.6 27 19.5
003B5D8C 2019-03-18 04:26:19 20.6 27 19.3
003B5D8C 2019-03-18 03:56:26 20.6 27 19.3
003B5D8C 2019-03-18 03:26:36 20.6 27 19.4
003B5D8C 2019-03-18 02:56:47 20.6 27 19
003B5D8C 2019-03-18 02:26:57 20.6 26 19
003B5D8C 2019-03-18 01:57:06 20.6 26 18.8
003B5D8C 2019-03-18 01:27:16 20.6 26 18.9
003B5D8C 2019-03-18 00:57:26 20.6 26 18.9
003B5D8C 2019-03-18 00:27:34 20.6 26 18.7
003B5D8C 2019-03-17 23:57:46 20.6 26 18.8
003B5D8C 2019-03-17 23:27:52 20.6 26 15.7
003B5D8C 2019-03-17 22:58:02 20.6 26 15.8
003B5D8C 2019-03-17 22:28:16 20.6 26 15.9
003B5D8C 2019-03-17 21:58:26 20.6 26 16
003B5D8C 2019-03-17 21:28:35 20.6 26 16
003B5D8C 2019-03-17 20:58:45 20.6 26 16.1
003B5D8C 2019-03-17 20:28:57 20.6 26 19
003B5D8C 2019-03-17 19:59:09 20.6 26 19
003B5D8C 2019-03-17 19:29:21 20.6 26 19.1
003B5D8C 2019-03-17 18:59:29 20.6 26 19.2
003B5D8C 2019-03-17 18:29:39 20.6 26 19.3
003B5D8C 2019-03-17 17:59:47 20.6 26 19.2
003B5D8C 2019-03-17 17:29:57 20.7 26 19.4
003B5D8C 2019-03-17 17:00:08 20.7 26 19.4
003B5D8C 2019-03-17 16:30:15 20.6 26 19.5
003B5D8C 2019-03-17 16:00:24 20.7 26 19.5
003B5D8C 2019-03-17 15:30:33 20.6 27 19.6
003B5D8C 2019-03-17 15:00:42 20.7 26 19.6
003B5D8C 2019-03-17 14:30:50 20.9 26 19.7
003B5D8C 2019-03-17 14:29:42 20.7 27 19.7
003B5D8C 2019-03-17 13:59:51 20.7 27 19.5
003B5D8C 2019-03-17 13:29:57 20.7 27 19.5
003B5D8C 2019-03-17 13:00:07 20.7 27 19.3
003B5D8C 2019-03-17 12:30:13 20.7 27 19.4
003B5D8C 2019-03-17 12:00:21 20.7 27 19.3
003B5D8C 2019-03-17 11:30:28 20.7 27 19.5
003B5D8C 2019-03-17 11:00:36 20.7 27 19.3
003B5D8C 2019-03-17 10:30:45 20.6 27 19.4
003B5D8C 2019-03-17 10:00:54 20.6 27 19.3
003B5D8C 2019-03-17 09:31:02 20.7 27 19.5
003B5D8C 2019-03-17 09:01:11 20.6 27 19.4
003B5D8C 2019-03-17 08:31:18 20.6 27 16.9
003B5D8C 2019-03-17 08:01:27 20.7 27 16.9
003B5D8C 2019-03-17 07:31:35 20.6 27 16.7
003B5D8C 2019-03-17 07:01:45 20.6 27 16.4
003B5D8C 2019-03-17 06:31:51 20.7 27 16.3
003B5D8C 2019-03-17 06:02:01 20.6 27 16.3
003B5D8C 2019-03-17 05:32:09 20.6 27 16
003B5D8C 2019-03-17 05:02:21 20.6 27 16
003B5D8C 2019-03-17 04:32:31 20.6 27 15.8
003B5D8C 2019-03-17 04:02:42 20.6 27 15.7
003B5D8C 2019-03-17 03:32:52 20.6 27 15.6
003B5D8C 2019-03-17 03:03:00 20.7 27 15.6
003B5D8C 2019-03-17 02:33:10 20.6 27 15.3
003B5D8C 2019-03-17 02:03:19 20.6 27 15.1
003B5D8C 2019-03-17 01:33:28 20.6 27 15.4
003B5D8C 2019-03-17 01:03:37 20.6 27 15.5
003B5D8C 2019-03-17 00:33:46 20.6 27 15.5
003B5D8C 2019-03-17 00:03:55 20.6 27 15.6
003B5D8C 2019-03-16 23:34:04 20.6 27 15.6
003B5D8C 2019-03-16 23:04:12 20.6 27 15.3
003B5D8C 2019-03-16 22:34:21 20.7 27 15.6
003B5D8C 2019-03-16 22:04:32 20.6 26 15.3
003B5D8C 2019-03-16 21:34:40 20.7 26 15.2
003B5D8C 2019-03-16 21:04:48 20.6 26 14.8
003B5D8C 2019-03-16 20:34:56 20.7 26 15
003B5D8C 2019-03-16 20:05:03 20.6 26 14.8
003B5D8C 2019-03-16 19:35:10 20.7 26 14.8
003B5D8C 2019-03-16 19:05:20 20.7 26 14.9
003B5D8C 2019-03-16 18:35:29 20.7 26 15.1
003B5D8C 2019-03-16 18:05:39 20.7 26 15.4
003B5D8C 2019-03-16 17:35:47 20.7 26 15.4
003B5D8C 2019-03-16 17:05:56 20.7 26 15.4
003B5D8C 2019-03-16 16:36:06 20.7 26 15.3
003B5D8C 2019-03-16 16:06:14 20.7 26 15.5
003B5D8C 2019-03-16 15:36:23 20.7 26 15.6
003B5D8C 2019-03-16 15:06:31 20.7 26 15.6
003B5D8C 2019-03-16 14:36:40 20.7 26 15.6
003B5D8C 2019-03-16 14:06:50 20.7 26 15.9
003B5D8C 2019-03-16 13:36:25 20.7 26 15.9
003B5D8C 2019-03-16 13:06:34 20.7 26 16
003B5D8C 2019-03-16 12:36:45 20.7 26 15.8
003B5D8C 2019-03-16 12:06:53 20.7 26 15.6
003B5D8C 2019-03-16 11:37:02 20.7 26 15.5
003B5D8C 2019-03-16 11:07:12 20.7 26 15.4
003B5D8C 2019-03-16 10:37:19 20.7 26 15.4
003B5D8C 2019-03-16 10:07:27 20.7 26 15.3
003B5D8C 2019-03-16 09:37:37 20.7 26 18.6
003B5D8C 2019-03-16 09:07:45 20.7 26 18.8
003B5D8C 2019-03-16 08:37:53 20.7 26 18.7
003B5D8C 2019-03-16 08:08:01 20.7 26 18.8
003B5D8C 2019-03-16 07:38:09 20.7 26 18.8
003B5D8C 2019-03-16 07:08:19 20.7 26 18.8
003B5D8C 2019-03-16 06:38:28 20.7 26 18.7
003B5D8C 2019-03-16 06:08:37 20.7 26 18.7
003B5D8C 2019-03-16 05:38:47 20.7 26 18.8
003B5D8C 2019-03-16 05:08:52 20.7 26 18.8
003B5D8C 2019-03-16 04:39:01 20.7 26 18.8
003B5D8C 2019-03-16 04:09:08 20.7 26 18.6
003B5D8C 2019-03-16 03:39:15 20.7 26 18.7
003B5D8C 2019-03-16 03:09:24 20.7 26 18.7
003B5D8C 2019-03-16 02:39:33 20.7 26 18.7
003B5D8C 2019-03-16 02:09:43 20.7 26 18.6
003B5D8C 2019-03-16 01:39:52 20.7 26 18.6
003B5D8C 2019-03-16 01:10:01 20.7 26 18.5
003B5D8C 2019-03-16 00:40:10 20.7 26 18.4
003B5D8C 2019-03-16 00:10:20 20.7 26 18.5
003B5D8C 2019-03-15 23:40:29 20.7 26 18.5
003B5D8C 2019-03-15 23:10:40 20.7 27 18.5
003B5D8C 2019-03-15 22:40:50 20.8 27 18.4
003B5D8C 2019-03-15 22:10:59 20.8 27 18.4
003B5D8C 2019-03-15 21:41:11 20.8 27 18.5
003B5D8C 2019-03-15 21:11:19 20.8 26 15.5
003B5D8C 2019-03-15 20:41:30 20.9 26 15.1
003B5D8C 2019-03-15 20:11:41 20.8 26 15.1
003B5D8C 2019-03-15 19:41:52 20.8 26 15.3
003B5D8C 2019-03-15 19:12:03 20.8 26 15.7
003B5D8C 2019-03-15 18:42:14 20.8 26 15.7
003B5D8C 2019-03-15 18:12:23 20.8 26 16
003B5D8C 2019-03-15 17:42:35 20.8 26 16
003B5D8C 2019-03-15 17:12:43 20.8 26 15.8
003B5D8C 2019-03-15 16:42:52 20.8 26 15.9
003B5D8C 2019-03-15 16:13:00 20.8 26 16.2
003B5D8C 2019-03-15 15:43:11 20.8 26 16.4
003B5D8C 2019-03-15 15:13:17 20.8 26 16.9
003B5D8C 2019-03-15 14:43:26 20.9 26 17.2
003B5D8C 2019-03-15 14:13:37 20.8 26 17.5
003B5D8C 2019-03-15 13:43:45 20.9 26 17.6
003B5D8C 2019-03-15 13:13:51 20.8 26 17.6
003B5D8C 2019-03-15 12:43:25 20.8 26 17.8
003B5D8C 2019-03-15 12:13:33 20.8 26 18.1
003B5D8C 2019-03-15 11:43:41 20.8 26 18.7
003B5D8C 2019-03-15 11:13:50 20.8 26 18.9
003B5D8C 2019-03-15 10:44:01 20.7 25 19.3
003B5D8C 2019-03-15 10:14:10 20.7 25 19.6
003B5D8C 2019-03-15 09:44:18 20.7 25 19.8
003B5D8C 2019-03-15 09:14:25 20.7 25 19.8
003B5D8C 2019-03-15 08:44:34 20.6 24 20
003B5D8C 2019-03-15 08:14:46 20.6 24 20
003B5D8C 2019-03-15 07:44:53 20.7 24 20.1
003B5D8C 2019-03-15 07:15:02 20.7 24 20
003B5D8C 2019-03-15 06:45:11 20.7 24 20.2
003B5D8C 2019-03-15 06:15:21 20.7 24 20.2
003B5D8C 2019-03-15 05:45:30 20.7 24 20.2
003B5D8C 2019-03-15 05:15:40 20.7 24 20.3
003B5D8C 2019-03-15 04:45:49 20.7 24 20.3
003B5D8C 2019-03-15 04:15:58 20.7 24 20.4
003B5D8C 2019-03-15 03:46:07 20.7 24 20.5
003B5D8C 2019-03-15 03:16:18 20.7 24 20.3
003B5D8C 2019-03-15 02:46:28 20.7 24 20.1
003B5D8C 2019-03-15 02:16:38 20.7 24 19.9
003B5D8C 2019-03-15 01:46:47 20.7 24 19.8
003B5D8C 2019-03-15 01:16:59 20.7 24 19.9
003B5D8C 2019-03-15 00:47:07 20.7 24 19.8
003B5D8C 2019-03-15 00:17:17 20.8 23 19.7
003B5D8C 2019-03-14 23:47:27 20.8 23 19.5
003B5D8C 2019-03-14 23:17:37 20.8 23 19
003B5D8C 2019-03-14 22:47:47 20.8 23 19.1
003B5D8C 2019-03-14 22:17:58 20.8 23 19
003B5D8C 2019-03-14 21:48:07 20.8 23 19
003B5D8C 2019-03-14 21:18:21 20.9 23 18.7
003B5D8C 2019-03-14 20:48:29 20.9 23 18.4
003B5D8C 2019-03-14 20:18:39 20.9 23 20.2
003B5D8C 2019-03-14 19:48:48 20.9 23 20.2
003B5D8C 2019-03-14 19:18:58 20.9 23 20.1
003B5D8C 2019-03-14 18:49:09 20.9 23 20
003B5D8C 2019-03-14 18:19:21 21 23 19.8
003B5D8C 2019-03-14 17:49:27 21 23 19.8
003B5D8C 2019-03-14 17:19:37 21 23 19.7
003B5D8C 2019-03-14 16:49:45 21 23 19.6
003B5D8C 2019-03-14 16:19:55 21 23 19.8
003B5D8C 2019-03-14 15:50:04 21 23 19.4
003B5D8C 2019-03-14 15:20:15 21 23 19.2
003B5D8C 2019-03-14 14:50:24 21 23 19.4
003B5D8C 2019-03-14 14:20:34 21 23 19.5
003B5D8C 2019-03-14 13:50:43 21 23 19.6
003B5D8C 2019-03-14 13:20:54 20.9 23 19.7
003B5D8C 2019-03-14 12:51:07 20.9 23 19.6
003B5D8C 2019-03-14 12:21:14 20.9 22 19.6
003B5D8C 2019-03-14 11:50:50 20.8 22 19.7
003B5D8C 2019-03-14 11:21:00 20.8 22 19.7
003B5D8C 2019-03-14 10:51:09 20.8 22 19.4
003B5D8C 2019-03-14 10:21:19 20.8 21 19.2
003B5D8C 2019-03-14 09:51:29 20.7 21 18.9
003B5D8C 2019-03-14 09:21:41 20.7 21 18.8
003B5D8C 2019-03-14 08:51:49 20.7 20 19
003B5D8C 2019-03-14 04:53:10 20.7 18 16.4
003B5D8C 2019-03-14 04:23:20 20.6 18 16.1
003B5D8C 2019-03-14 03:53:29 20.6 18 16.3
003B5D8C 2019-03-14 03:23:40 20.6 18 16.2
003B5D8C 2019-03-14 02:53:50 20.6 18 16.1
003B5D8C 2019-03-14 02:23:59 20.7 17 16.1
003B5D8C 2019-03-14 01:54:09 20.6 17 15.8
003B5D8C 2019-03-14 01:24:18 20.6 17 15.5
003B5D8C 2019-03-14 00:54:31 20.7 17 15.5
003B5D8C 2019-03-14 00:24:37 20.7 17 15.6
003B5D8C 2019-03-13 23:54:47 20.7 17 15.6
003B5D8C 2019-03-13 23:25:00 20.7 17 15.7
003B5D8C 2019-03-13 22:55:08 20.7 17 15.7
003B5D8C 2019-03-13 22:25:18 20.7 17 15.5
003B5D8C 2019-03-13 21:55:28 20.7 17 16.1
003B5D8C 2019-03-13 21:25:39 20.8 16 16.4
003B5D8C 2019-03-13 20:55:49 20.7 16 16.8
003B5D8C 2019-03-13 20:25:58 20.8 16 16.7
003B5D8C 2019-03-13 19:56:07 20.8 16 17.2
003B5D8C 2019-03-13 19:26:15 20.8 16 17.5
003B5D8C 2019-03-13 18:56:24 20.8 16 17.7
003B5D8C 2019-03-13 18:26:36 20.9 16 18.2
003B5D8C 2019-03-13 17:56:43 20.9 16 18.7
003B5D8C 2019-03-13 17:26:53 21 16 18.8
003B5D8C 2019-03-13 16:57:03 20.9 16 18.8
003B5D8C 2019-03-13 16:27:13 20.9 16 18.9
003B5D8C 2019-03-13 15:57:25 20.9 16 19.3
003B5D8C 2019-03-13 15:27:34 20.9 16 19.3
003B5D8C 2019-03-13 14:57:46 20.9 16 19.6
003B5D8C 2019-03-13 14:27:55 20.9 16 19.6
003B5D8C 2019-03-13 13:58:08 20.8 16 19.7
003B5D8C 2019-03-13 13:28:16 20.8 16 20.2
003B5D8C 2019-03-13 12:58:26 20.8 16 20.5
003B5D8C 2019-03-13 12:28:38 20.8 16 20.8
003B5D8C 2019-03-13 11:58:47 20.8 16 21.1
003B5D8C 2019-03-13 11:28:56 20.8 16 21.2
003B5D8C 2019-03-13 10:58:36 20.7 16 22.4
003B5D8C 2019-03-13 10:28:45 20.6 16 22.4
003B5D8C 2019-03-13 09:58:53 20.5 16 22.5
003B5D8C 2019-03-13 09:29:02 20.4 15 22.4
003B5D8C 2019-03-13 08:59:10 20.4 15 22.3
003B5D8C 2019-03-13 08:29:19 20.4 15 22.2
003B5D8C 2019-03-13 07:59:26 20.4 15 22.2
003B5D8C 2019-03-13 07:29:32 20.4 15 22.1
003B5D8C 2019-03-13 06:59:39 20.4 15 22.1
003B5D8C 2019-03-13 06:29:48 20.4 15 22
003B5D8C 2019-03-13 05:59:57 20.4 15 21.9
003B5D8C 2019-03-13 05:30:06 20.4 16 21.6
003B5D8C 2019-03-13 05:00:14 20.4 16 21.5
003B5D8C 2019-03-13 04:30:21 20.5 16 21.4
003B5D8C 2019-03-13 04:00:29 20.5 16 21.4
003B5D8C 2019-03-13 03:30:37 20.5 16 21.2
003B5D8C 2019-03-13 03:00:47 20.5 16 21.2
003B5D8C 2019-03-13 02:30:57 20.5 16 21
003B5D8C 2019-03-13 02:01:06 20.5 16 22.1
003B5D8C 2019-03-13 01:31:17 20.5 16 23
003B5D8C 2019-03-13 01:01:24 20.5 16 22.8
003B5D8C 2019-03-13 00:31:34 20.6 16 22.7
003B5D8C 2019-03-13 00:01:45 20.6 16 22.4
003B5D8C 2019-03-12 23:31:54 20.6 16 23.2
003B5D8C 2019-03-12 23:02:03 20.6 16 23.1
003B5D8C 2019-03-12 22:32:12 20.6 16 22.2
003B5D8C 2019-03-12 22:02:22 20.6 16 22.1
003B5D8C 2019-03-12 21:32:31 20.7 16 23
003B5D8C 2019-03-12 21:02:41 20.7 16 23.7
003B5D8C 2019-03-12 20:32:51 20.7 16 24.4
003B5D8C 2019-03-12 20:02:59 20.7 16 24.9
003B5D8C 2019-03-12 19:33:09 20.7 16 25.4
003B5D8C 2019-03-12 19:03:20 20.7 16 25.9
003B5D8C 2019-03-12 18:33:30 20.8 16 26.3
003B5D8C 2019-03-12 18:03:40 20.8 16 26.6
003B5D8C 2019-03-12 17:33:52 20.8 16 26.6
003B5D8C 2019-03-12 17:03:59 20.8 16 27
003B5D8C 2019-03-12 16:34:10 20.8 16 27.3
003B5D8C 2019-03-12 16:04:20 20.8 16 27.6
003B5D8C 2019-03-12 15:34:32 20.7 16 27.9
003B5D8C 2019-03-12 15:04:43 20.7 16 28.2
003B5D8C 2019-03-12 14:34:52 20.7 16 28.4
003B5D8C 2019-03-12 14:05:02 20.7 16 28.6
003B5D8C 2019-03-12 13:35:13 20.7 16 28.6
003B5D8C 2019-03-12 13:05:23 20.6 16 28.6
003B5D8C 2019-03-12 12:35:33 20.6 16 28.8
003B5D8C 2019-03-12 12:05:43 20.6 16 29.1
003B5D8C 2019-03-12 11:35:56 20.6 16 29.3
003B5D8C 2019-03-12 11:06:04 20.5 16 29.3
003B5D8C 2019-03-12 10:36:14 20.5 16 29.5
003B5D8C 2019-03-12 10:05:53 20.4 16 29.6
003B5D8C 2019-03-12 09:36:05 20.4 15 29.8
003B5D8C 2019-03-12 09:06:12 20.4 15 29.8
003B5D8C 2019-03-12 08:36:21 20.4 15 29.6
003B5D8C 2019-03-12 08:06:29 20.4 16 29.6
003B5D8C 2019-03-12 07:36:37 20.4 16 29.6
003B5D8C 2019-03-12 07:06:46 20.4 16 29.6
003B5D8C 2019-03-12 06:36:54 20.4 16 29.6
003B5D8C 2019-03-12 06:07:03 20.4 16 29.6
003B5D8C 2019-03-12 05:37:12 20.5 16 29.6
003B5D8C 2019-03-12 05:07:21 20.5 16 29.8
003B5D8C 2019-03-12 04:37:30 20.5 16 29.8
003B5D8C 2019-03-12 04:07:39 20.5 16 29.7
003B5D8C 2019-03-12 03:37:49 20.5 16 29.5
003B5D8C 2019-03-12 03:07:58 20.5 16 29.3
003B5D8C 2019-03-12 02:38:08 20.5 16 29.1
003B5D8C 2019-03-12 02:08:16 20.5 16 28.9
003B5D8C 2019-03-12 01:38:26 20.5 16 28.7
003B5D8C 2019-03-12 01:08:36 20.5 16 28.5
003B5D8C 2019-03-12 00:38:46 20.5 16 28.2
003B5D8C 2019-03-12 00:08:55 20.5 16 28
003B5D8C 2019-03-11 23:39:05 20.6 16 27.7
003B5D8C 2019-03-11 23:09:14 20.6 16 27.4
003B5D8C 2019-03-11 22:39:22 20.6 16 27.1
003B5D8C 2019-03-11 22:09:32 20.7 16 26.8
003B5D8C 2019-03-11 21:39:42 20.7 16 26.4
003B5D8C 2019-03-11 21:09:53 20.7 16 26
003B5D8C 2019-03-11 20:40:04 20.7 16 25.7
003B5D8C 2019-03-11 20:10:14 20.7 16 25.7
003B5D8C 2019-03-11 19:40:24 20.7 16 25.2
003B5D8C 2019-03-11 19:10:37 20.8 16 24.6
003B5D8C 2019-03-11 18:40:47 20.8 16 24.1
003B5D8C 2019-03-11 18:10:59 20.8 16 23.4
003B5D8C 2019-03-11 17:41:11 20.8 16 22.6
003B5D8C 2019-03-11 17:11:22 20.8 16 21.6
003B5D8C 2019-03-11 16:41:34 20.8 17 20.3
003B5D8C 2019-03-11 16:11:45 20.7 17 18.4
003B5D8C 2019-03-11 15:41:56 20.7 17 18.3
003B5D8C 2019-03-11 15:12:08 20.6 17 18.4
003B5D8C 2019-03-11 14:42:20 20.6 17 18.2
003B5D8C 2019-03-11 14:12:30 20.6 17 20.2
003B5D8C 2019-03-11 13:12:49 20.6 17 20.3
003B5D8C 2019-03-11 12:42:58 20.5 17 20.3
003B5D8C 2019-03-11 12:13:08 20.5 17 20.1
003B5D8C 2019-03-11 11:43:17 20.5 17 20.1
003B5D8C 2019-03-11 11:13:27 20.5 17 20.2
003B5D8C 2019-03-11 10:43:35 20.5 17 20.4
003B5D8C 2019-03-11 10:13:43 20.4 17 20.5
003B5D8C 2019-03-11 09:43:53 20.4 17 20.6
003B5D8C 2019-03-11 09:13:31 20.3 18 20.7
003B5D8C 2019-03-11 08:43:40 20.4 18 20.7
003B5D8C 2019-03-11 08:13:49 20.4 18 20.5
003B5D8C 2019-03-11 07:43:58 20.4 18 20.6
003B5D8C 2019-03-11 07:14:07 20.4 18 20.8
003B5D8C 2019-03-11 06:44:16 20.4 18 20.9
003B5D8C 2019-03-11 06:14:25 20.4 18 20.9
003B5D8C 2019-03-11 05:44:34 20.4 18 20.8
003B5D8C 2019-03-11 05:14:43 20.4 19 21
003B5D8C 2019-03-11 04:44:52 20.5 19 21.1
003B5D8C 2019-03-11 04:15:02 20.4 19 21.3
003B5D8C 2019-03-11 03:45:09 20.5 19 21.5
003B5D8C 2019-03-11 03:15:17 20.5 19 21.6
003B5D8C 2019-03-11 02:45:26 20.4 19 21.8
003B5D8C 2019-03-11 02:15:35 20.5 19 21.9
003B5D8C 2019-03-11 01:45:44 20.5 19 20.7
003B5D8C 2019-03-11 01:15:53 20.5 19 21.9
003B5D8C 2019-03-11 00:46:01 20.5 19 21.8
003B5D8C 2019-03-11 00:16:10 20.5 20 21.8
003B5D8C 2019-03-10 23:46:18 20.5 20 21.8
003B5D8C 2019-03-10 23:16:26 20.5 20 21.7
003B5D8C 2019-03-10 22:46:35 20.6 20 21.6
003B5D8C 2019-03-10 22:16:43 20.6 20 21.5
003B5D8C 2019-03-10 21:46:51 20.6 20 21.4
003B5D8C 2019-03-10 21:16:59 20.6 20 21.3
003B5D8C 2019-03-10 20:47:08 20.6 20 21.3
003B5D8C 2019-03-10 20:17:17 20.7 20 21.1
003B5D8C 2019-03-10 19:47:25 20.7 20 21
003B5D8C 2019-03-10 19:17:34 20.7 20 21.2
003B5D8C 2019-03-10 18:47:42 20.7 21 21.1
003B5D8C 2019-03-10 18:17:49 20.7 21 22.2
003B5D8C 2019-03-10 17:47:57 20.7 21 22.3
003B5D8C 2019-03-10 17:18:04 20.7 21 22.3
003B5D8C 2019-03-10 16:48:12 20.7 21 22.1
003B5D8C 2019-03-10 16:18:21 20.7 21 22
003B5D8C 2019-03-10 15:48:30 20.6 21 22.1
003B5D8C 2019-03-10 15:18:38 20.7 22 22
003B5D8C 2019-03-10 14:48:46 20.6 23 22.1
003B5D8C 2019-03-10 14:18:55 20.6 23 21.9
003B5D8C 2019-03-10 13:49:03 20.6 24 22
003B5D8C 2019-03-10 13:19:13 20.6 24 22
003B5D8C 2019-03-10 12:49:20 20.6 24 20.7
003B5D8C 2019-03-10 12:19:29 20.6 24 20.8
003B5D8C 2019-03-10 11:49:38 20.5 24 20.9
003B5D8C 2019-03-10 11:19:49 20.5 24 20.9
003B5D8C 2019-03-10 10:49:58 20.5 24 21
003B5D8C 2019-03-10 10:20:07 20.6 24 21.1
003B5D8C 2019-03-10 09:50:16 20.6 24 21.3
003B5D8C 2019-03-10 09:20:27 20.6 24 21.5
003B5D8C 2019-03-10 08:50:34 20.6 24 21.5
003B5D8C 2019-03-10 08:20:11 20.6 24 21.6
003B5D8C 2019-03-10 07:50:21 20.6 24 21.7
003B5D8C 2019-03-10 07:20:31 20.6 24 21.6
003B5D8C 2019-03-10 06:50:40 20.6 24 21.8
003B5D8C 2019-03-10 06:20:48 20.6 24 20.7
003B5D8C 2019-03-10 05:50:56 20.6 24 20.7
003B5D8C 2019-03-10 05:21:04 20.6 24 20.6
003B5D8C 2019-03-10 04:51:14 20.6 24 20.7
003B5D8C 2019-03-10 04:21:23 20.6 24 20.8
003B5D8C 2019-03-10 03:51:31 20.6 24 20.5
003B5D8C 2019-03-10 03:21:39 20.6 24 20.5
003B5D8C 2019-03-10 02:51:47 20.6 24 20.1
003B5D8C 2019-03-10 02:21:57 20.6 24 20.2
003B5D8C 2019-03-10 01:52:08 20.6 24 20.1
003B5D8C 2019-03-10 01:22:19 20.7 24 20
003B5D8C 2019-03-10 00:52:31 20.6 24 20
003B5D8C 2019-03-10 00:22:43 20.6 24 19.9
003B5D8C 2019-03-09 23:52:54 20.7 24 21.3
003B5D8C 2019-03-09 23:23:05 20.6 23 21.4
003B5D8C 2019-03-09 22:53:16 20.7 23 21.2
003B5D8C 2019-03-09 22:23:27 20.7 23 21.1
003B5D8C 2019-03-09 21:53:37 20.7 23 21
003B5D8C 2019-03-09 21:23:48 20.7 23 22
003B5D8C 2019-03-09 20:53:58 20.7 23 22.1
003B5D8C 2019-03-09 20:24:08 20.7 23 22.1
003B5D8C 2019-03-09 19:54:18 20.7 23 22.1
003B5D8C 2019-03-09 19:24:29 20.7 23 22.1
003B5D8C 2019-03-09 18:54:39 20.8 23 22.1
003B5D8C 2019-03-09 18:24:49 20.8 23 22
003B5D8C 2019-03-09 17:55:02 20.8 23 21.8
003B5D8C 2019-03-09 17:25:11 20.8 23 21.7
003B5D8C 2019-03-09 16:55:21 20.8 23 21.6
003B5D8C 2019-03-09 16:25:28 20.8 23 21.6
003B5D8C 2019-03-09 15:55:39 20.8 23 21.6
003B5D8C 2019-03-09 15:25:47 20.8 24 21.6
003B5D8C 2019-03-09 14:55:57 20.8 24 21.5
003B5D8C 2019-03-09 14:26:06 20.8 24 21.7
003B5D8C 2019-03-09 13:56:17 20.7 24 21.8
003B5D8C 2019-03-09 13:26:23 20.7 24 21.9
003B5D8C 2019-03-09 12:56:31 20.7 24 22
003B5D8C 2019-03-09 11:56:48 20.6 24 22
003B5D8C 2019-03-09 11:26:58 20.6 24 22.1
003B5D8C 2019-03-09 10:57:02 20.6 24 21.1
003B5D8C 2019-03-09 10:27:11 20.7 24 21.2
003B5D8C 2019-03-09 09:57:20 20.6 24 21.2
003B5D8C 2019-03-09 09:27:28 20.6 25 21.2
003B5D8C 2019-03-09 08:57:35 20.6 25 21.2
003B5D8C 2019-03-09 08:27:44 20.7 25 19.8
003B5D8C 2019-03-09 07:57:53 20.6 25 19.7
003B5D8C 2019-03-09 07:27:29 20.6 25 21.3
003B5D8C 2019-03-09 06:57:38 20.6 25 21.2
003B5D8C 2019-03-09 06:27:46 20.7 26 21.1
003B5D8C 2019-03-09 05:57:55 20.7 26 20.9
003B5D8C 2019-03-09 05:28:04 20.7 26 22.1
003B5D8C 2019-03-09 04:58:13 20.7 26 22.2
003B5D8C 2019-03-09 04:28:23 20.8 26 22.2
003B5D8C 2019-03-09 03:58:31 20.7 26 22.2
003B5D8C 2019-03-09 03:28:40 20.8 26 22.1
003B5D8C 2019-03-09 02:58:48 20.8 26 22
003B5D8C 2019-03-09 02:28:57 20.8 26 22
003B5D8C 2019-03-09 01:59:06 20.8 26 21.8
003B5D8C 2019-03-09 01:29:14 20.8 26 21.7
003B5D8C 2019-03-09 00:59:24 20.9 26 21.5
003B5D8C 2019-03-09 00:29:33 20.8 26 22.5
003B5D8C 2019-03-08 23:59:42 20.9 27 22.5
003B5D8C 2019-03-08 23:29:49 20.9 27 22.5
003B5D8C 2019-03-08 22:59:58 20.9 27 22.5
003B5D8C 2019-03-08 22:30:06 20.9 27 22.4
003B5D8C 2019-03-08 22:00:14 21 27 22.4
003B5D8C 2019-03-08 21:30:25 21 27 22.3
003B5D8C 2019-03-08 21:00:31 21 27 22.3
003B5D8C 2019-03-08 20:30:41 21 27 22.3
003B5D8C 2019-03-08 20:00:52 21 27 22.3
003B5D8C 2019-03-08 19:31:02 21 27 22.2
003B5D8C 2019-03-08 19:01:12 21.1 27 21.1
003B5D8C 2019-03-08 18:31:27 21.1 27 21.1
003B5D8C 2019-03-08 18:01:34 21.1 26 21.1
003B5D8C 2019-03-08 17:31:46 21.2 27 21.1
003B5D8C 2019-03-08 17:01:53 21.2 27 19.6
003B5D8C 2019-03-08 16:32:03 21.1 27 19.6
003B5D8C 2019-03-08 16:02:14 21.1 27 19.6
003B5D8C 2019-03-08 15:32:23 21.1 27 19.6
003B5D8C 2019-03-08 15:02:31 21 26 19.8
003B5D8C 2019-03-08 14:32:43 21 26 19.9
003B5D8C 2019-03-08 14:02:51 21 26 19.9
003B5D8C 2019-03-08 13:33:01 20.9 26 19.8
003B5D8C 2019-03-08 13:03:12 20.9 26 20
003B5D8C 2019-03-08 12:33:22 20.9 26 20.3
003B5D8C 2019-03-08 12:03:31 20.9 25 18.5
003B5D8C 2019-03-08 11:33:43 20.8 25 18.8
003B5D8C 2019-03-08 11:03:50 20.8 25 18.5
003B5D8C 2019-03-08 10:34:01 20.8 25 18.2
003B5D8C 2019-03-08 10:04:11 20.8 25 18.4
003B5D8C 2019-03-08 09:34:22 20.8 24 18.7
003B5D8C 2019-03-08 09:04:33 20.8 24 18.7
003B5D8C 2019-03-08 08:34:43 20.8 24 18.8
003B5D8C 2019-03-08 08:04:52 20.8 23 18.9
003B5D8C 2019-03-08 07:35:01 20.8 23 18.9
003B5D8C 2019-03-08 07:05:11 20.8 23 18.8
003B5D8C 2019-03-08 06:34:49 20.8 23 18.8
003B5D8C 2019-03-08 06:05:00 20.8 23 18.8
003B5D8C 2019-03-08 05:35:10 20.8 23 19
003B5D8C 2019-03-08 05:05:19 20.8 23 19
003B5D8C 2019-03-08 04:35:29 20.8 23 18.7
003B5D8C 2019-03-08 04:05:42 20.8 23 18.8
003B5D8C 2019-03-08 03:35:52 20.8 22 18.8
003B5D8C 2019-03-08 03:06:01 20.8 22 18.5
003B5D8C 2019-03-08 02:36:11 20.8 22 18.6
003B5D8C 2019-03-08 02:06:20 20.8 22 18.8
003B5D8C 2019-03-08 01:36:29 20.8 22 20.6
003B5D8C 2019-03-08 01:06:39 20.8 22 20.4
003B5D8C 2019-03-08 00:36:52 20.8 22 20.2
003B5D8C 2019-03-08 00:06:58 20.8 22 20
003B5D8C 2019-03-07 23:37:07 20.9 22 19.8
003B5D8C 2019-03-07 23:07:17 20.8 22 20
003B5D8C 2019-03-07 22:37:25 20.9 22 20
003B5D8C 2019-03-07 22:07:32 20.9 22 19.9
003B5D8C 2019-03-07 21:37:41 20.9 22 19.7
003B5D8C 2019-03-07 21:07:49 20.9 22 19.6
003B5D8C 2019-03-07 20:37:57 21 22 19.5
003B5D8C 2019-03-07 20:08:04 21 22 19.6
003B5D8C 2019-03-07 19:38:14 21 22 19.7
003B5D8C 2019-03-07 19:08:24 21.1 22 19.8
003B5D8C 2019-03-07 18:38:34 21.1 21 19.7
003B5D8C 2019-03-07 18:08:44 21.2 21 19.8
003B5D8C 2019-03-07 17:38:57 21.2 21 19.9
003B5D8C 2019-03-07 17:09:02 21.2 21 19.7
003B5D8C 2019-03-07 16:39:14 21.2 21 19.7
003B5D8C 2019-03-07 16:09:19 21.2 21 19.9
003B5D8C 2019-03-07 15:39:30 21.2 21 19.8
003B5D8C 2019-03-07 15:09:37 21.2 20 19.9
003B5D8C 2019-03-07 14:39:49 21.1 21 19.9
003B5D8C 2019-03-07 14:09:58 21.1 20 19.8
003B5D8C 2019-03-07 13:40:08 21 19 19.7
003B5D8C 2019-03-07 13:10:18 21 19 17.5
003B5D8C 2019-03-07 12:40:29 20.9 19 17.6
003B5D8C 2019-03-07 12:10:40 20.9 18 17.6
003B5D8C 2019-03-07 11:40:49 20.9 18 17.6
003B5D8C 2019-03-07 11:11:00 20.9 18 17.7
003B5D8C 2019-03-07 10:41:10 20.8 18 17.2
003B5D8C 2019-03-07 10:11:21 20.8 17 17.2
003B5D8C 2019-03-07 09:41:31 20.8 17 17.3
003B5D8C 2019-03-07 09:11:41 20.7 16 17.3
003B5D8C 2019-03-07 08:41:51 20.7 16 17.6
003B5D8C 2019-03-07 08:11:59 20.8 16 17.7
003B5D8C 2019-03-07 07:42:08 20.7 15 17.2
003B5D8C 2019-03-07 07:12:17 20.7 15 17.1
003B5D8C 2019-03-07 06:42:26 20.8 15 16.9
003B5D8C 2019-03-07 06:12:36 20.7 15 16.8
003B5D8C 2019-03-07 05:42:10 20.7 14 16.5
003B5D8C 2019-03-07 05:12:21 20.8 14 16.4
003B5D8C 2019-03-07 04:42:30 20.7 14 16.3
003B5D8C 2019-03-07 04:12:41 20.7 14 16.5
003B5D8C 2019-03-07 03:42:53 20.7 14 16.9
003B5D8C 2019-03-07 03:13:01 20.7 14 17
003B5D8C 2019-03-07 02:43:12 20.7 13 17.6
003B5D8C 2019-03-07 02:13:23 20.7 13 17.6
003B5D8C 2019-03-07 01:43:33 20.7 13 17.8
003B5D8C 2019-03-07 01:13:44 20.7 13 17.7
003B5D8C 2019-03-07 00:43:55 20.7 13 17.6
003B5D8C 2019-03-07 00:14:05 20.7 13 17.5
003B5D8C 2019-03-06 23:44:14 20.7 12 17.5
003B5D8C 2019-03-06 23:14:25 20.7 12 19.8
003B5D8C 2019-03-06 22:44:35 20.7 12 20
003B5D8C 2019-03-06 22:14:45 20.8 12 20.2
003B5D8C 2019-03-06 21:44:55 20.8 12 20.2
003B5D8C 2019-03-06 21:15:05 20.8 12 20.2
003B5D8C 2019-03-06 20:45:16 20.8 12 20.4
003B5D8C 2019-03-06 20:15:25 20.8 12 20.2
003B5D8C 2019-03-06 19:45:35 20.8 12 20.2
003B5D8C 2019-03-06 19:15:46 20.9 12 20.3
003B5D8C 2019-03-06 18:45:56 20.9 12 20.3
003B5D8C 2019-03-06 18:16:06 20.9 11 20.7
003B5D8C 2019-03-06 17:46:16 21 11 20.8
003B5D8C 2019-03-06 17:16:25 21 11 20.9
003B5D8C 2019-03-06 16:46:34 21 11 21
003B5D8C 2019-03-06 16:16:43 21 11 21.2
003B5D8C 2019-03-06 15:46:52 21 11 21.3
003B5D8C 2019-03-06 15:17:02 21 11 21
003B5D8C 2019-03-06 14:47:11 20.9 12 21.2
003B5D8C 2019-03-06 14:17:20 20.8 11 21
003B5D8C 2019-03-06 13:47:30 20.8 11 21
003B5D8C 2019-03-06 13:17:38 20.7 11 21.1
003B5D8C 2019-03-06 12:47:47 20.7 11 21.3
003B5D8C 2019-03-06 12:17:57 20.7 11 21.5
003B5D8C 2019-03-06 11:48:05 20.7 11 21.5
003B5D8C 2019-03-06 11:18:15 20.7 11 21.6
003B5D8C 2019-03-06 10:48:25 20.7 12 20.3
003B5D8C 2019-03-06 10:18:35 20.6 12 20.3
003B5D8C 2019-03-06 09:48:45 20.4 11 20.1
003B5D8C 2019-03-06 09:18:54 20.4 11 21.5
003B5D8C 2019-03-06 08:49:03 20.4 11 21.5
003B5D8C 2019-03-06 08:19:12 20.4 12 21.5
003B5D8C 2019-03-06 07:49:20 20.5 12 21.5
003B5D8C 2019-03-06 07:19:30 20.5 12 21.6
003B5D8C 2019-03-06 06:49:40 20.5 12 21.6
003B5D8C 2019-03-06 06:19:50 20.5 12 21.7
003B5D8C 2019-03-06 05:50:00 20.6 12 21.5
003B5D8C 2019-03-06 05:20:08 20.6 12 21.6
003B5D8C 2019-03-06 04:49:43 20.6 12 21.5
003B5D8C 2019-03-06 04:19:54 20.6 12 22.4
003B5D8C 2019-03-06 03:50:03 20.6 13 22.5
003B5D8C 2019-03-06 03:20:12 20.6 13 22.6
003B5D8C 2019-03-06 02:50:23 20.6 13 22.5
003B5D8C 2019-03-06 02:20:31 20.6 13 22.7
003B5D8C 2019-03-06 01:50:39 20.7 13 22.6
003B5D8C 2019-03-06 01:20:49 20.7 13 22.7
003B5D8C 2019-03-06 00:50:57 20.7 13 22.5
003B5D8C 2019-03-06 00:21:06 20.7 13 22.3
003B5D8C 2019-03-05 23:51:16 20.7 13 22.3
003B5D8C 2019-03-05 23:21:26 20.8 13 22.3
003B5D8C 2019-03-05 22:51:35 20.8 13 22.3
003B5D8C 2019-03-05 22:21:44 20.8 13 22.2
003B5D8C 2019-03-05 21:51:55 20.9 13 22.3
003B5D8C 2019-03-05 21:22:06 20.8 13 21.1
003B5D8C 2019-03-05 20:52:15 20.9 13 21.1
003B5D8C 2019-03-05 20:22:24 20.9 13 21.1
003B5D8C 2019-03-05 19:52:32 20.9 14 21
003B5D8C 2019-03-05 19:22:41 20.9 14 20.8
003B5D8C 2019-03-05 18:52:51 20.9 14 20.9
003B5D8C 2019-03-05 18:23:00 21 14 20.9
003B5D8C 2019-03-05 17:53:10 21 14 21
003B5D8C 2019-03-05 17:23:20 21.1 15 20.7
003B5D8C 2019-03-05 16:53:28 21.1 15 20.7
003B5D8C 2019-03-05 16:23:38 21.1 15 20.8
003B5D8C 2019-03-05 15:53:47 21 16 19.3
003B5D8C 2019-03-05 15:23:56 20.9 16 19
003B5D8C 2019-03-05 14:54:04 20.8 16 18.8
003B5D8C 2019-03-05 14:24:14 20.7 16 18.6
003B5D8C 2019-03-05 13:54:23 20.7 17 18.4
003B5D8C 2019-03-05 13:24:35 20.6 17 18.7
003B5D8C 2019-03-05 12:54:39 20.6 17 18.4
003B5D8C 2019-03-05 12:24:48 20.6 17 18.5
003B5D8C 2019-03-05 11:54:58 20.6 17 18.6
003B5D8C 2019-03-05 11:25:07 20.6 17 18.6
003B5D8C 2019-03-05 10:55:17 20.6 18 18.7
003B5D8C 2019-03-05 10:25:28 20.5 18 18.7
003B5D8C 2019-03-05 09:55:38 20.5 18 18.6
003B5D8C 2019-03-05 09:25:49 20.5 18 18.7
003B5D8C 2019-03-05 08:55:59 20.5 18 18.8
003B5D8C 2019-03-05 08:26:10 20.5 18 18.7
003B5D8C 2019-03-05 07:56:20 20.5 19 18.6
003B5D8C 2019-03-05 07:26:30 20.6 19 18.6
003B5D8C 2019-03-05 06:56:39 20.6 19 18.7
003B5D8C 2019-03-05 06:26:49 20.5 19 18.4
003B5D8C 2019-03-05 05:56:57 20.6 19 18.5
003B5D8C 2019-03-05 05:27:06 20.6 19 18.2
003B5D8C 2019-03-05 04:57:14 20.6 19 18.5
003B5D8C 2019-03-05 04:27:22 20.6 19 18.4
003B5D8C 2019-03-05 03:56:54 20.6 19 18.1
003B5D8C 2019-03-05 03:27:04 20.6 19 18
003B5D8C 2019-03-05 02:57:13 20.6 19 18.3
003B5D8C 2019-03-05 02:27:23 20.6 19 18.3
003B5D8C 2019-03-05 01:57:33 20.6 19 18.1
003B5D8C 2019-03-05 01:27:42 20.6 19 19.9
003B5D8C 2019-03-05 00:57:52 20.6 19 19.9
003B5D8C 2019-03-05 00:28:02 20.6 18 19.8
003B5D8C 2019-03-04 23:58:10 20.6 18 19.8
003B5D8C 2019-03-04 23:28:19 20.6 18 19.8
003B5D8C 2019-03-04 22:58:29 20.6 18 19.6
003B5D8C 2019-03-04 22:28:38 20.6 18 19.6
003B5D8C 2019-03-04 21:58:48 20.6 18 19.6
003B5D8C 2019-03-04 21:28:57 20.6 18 19.5
003B5D8C 2019-03-04 20:59:06 20.6 18 19.6
003B5D8C 2019-03-04 20:29:17 20.6 18 19.6
003B5D8C 2019-03-04 19:59:25 20.6 18 19.5
003B5D8C 2019-03-04 19:29:34 20.6 18 21.1
003B5D8C 2019-03-04 18:59:42 20.6 18 21.1
003B5D8C 2019-03-04 18:29:52 20.6 18 21.1
003B5D8C 2019-03-04 18:00:01 20.6 18 22.2
003B5D8C 2019-03-04 17:30:12 20.6 18 22.1
003B5D8C 2019-03-04 17:00:22 20.6 18 22.1
003B5D8C 2019-03-04 16:30:30 20.6 18 22.1
003B5D8C 2019-03-04 16:00:39 20.6 17 22.1
003B5D8C 2019-03-04 15:30:49 20.5 17 22.1
003B5D8C 2019-03-04 15:00:56 20.5 17 22.2
003B5D8C 2019-03-04 14:31:05 20.5 17 22.1
003B5D8C 2019-03-04 14:01:15 20.4 17 22.1
003B5D8C 2019-03-04 13:31:24 20.4 17 22.1
003B5D8C 2019-03-04 13:01:32 20.4 17 21
003B5D8C 2019-03-04 12:31:40 20.4 17 21
003B5D8C 2019-03-04 12:01:48 20.3 17 21
003B5D8C 2019-03-04 11:31:59 20.3 17 21
003B5D8C 2019-03-04 11:02:07 20.3 17 21
003B5D8C 2019-03-04 10:32:16 20.2 17 22.2
003B5D8C 2019-03-04 10:02:26 20.2 17 22.2
003B5D8C 2019-03-04 09:32:35 20.1 17 22.2
003B5D8C 2019-03-04 09:02:44 20.1 17 22.2
003B5D8C 2019-03-04 08:32:51 20.1 17 22.1
003B5D8C 2019-03-04 08:03:01 20.1 17 22.1
003B5D8C 2019-03-04 07:33:09 20.1 18 22.1
003B5D8C 2019-03-04 07:03:16 20.1 18 20.9
003B5D8C 2019-03-04 06:33:25 20.1 18 20.8
003B5D8C 2019-03-04 06:03:34 20.1 18 20.8
003B5D8C 2019-03-04 05:33:43 20.1 18 19.2
003B5D8C 2019-03-04 05:03:52 20.1 17 20.9
003B5D8C 2019-03-04 04:33:59 20.1 17 20.9
003B5D8C 2019-03-04 04:04:07 20.1 18 20.9
003B5D8C 2019-03-04 03:34:14 20.1 17 20.8
003B5D8C 2019-03-04 03:03:50 20.1 17 20.8
003B5D8C 2019-03-04 02:33:58 20.1 17 20.8
003B5D8C 2019-03-04 02:04:08 20.1 17 20.8
003B5D8C 2019-03-04 01:34:16 20.1 17 20.7
003B5D8C 2019-03-04 01:04:25 20.1 17 20.6
003B5D8C 2019-03-04 00:34:33 20.1 17 20.6
003B5D8C 2019-03-04 00:04:40 20.1 17 20.6
003B5D8C 2019-03-03 23:34:49 20.1 17 20.6
003B5D8C 2019-03-03 23:04:58 20.1 17 20.5
003B5D8C 2019-03-03 22:35:09 20.1 17 18.7
003B5D8C 2019-03-03 22:05:16 20.1 17 18.7
003B5D8C 2019-03-03 21:35:26 20.2 17 18.6
003B5D8C 2019-03-03 21:05:37 20.1 17 18.7
003B5D8C 2019-03-03 20:35:46 20.1 17 18.7
003B5D8C 2019-03-03 20:05:56 20.2 18 18.8
003B5D8C 2019-03-03 19:36:07 20.2 18 18.7
003B5D8C 2019-03-03 19:06:16 20.2 18 18.9
003B5D8C 2019-03-03 18:36:25 20.2 18 19
003B5D8C 2019-03-03 18:06:35 20.2 18 18.9
003B5D8C 2019-03-03 17:36:44 20.2 18 18.9
003B5D8C 2019-03-03 17:06:55 20.3 18 15.9
003B5D8C 2019-03-03 16:37:04 20.3 18 15.7
003B5D8C 2019-03-03 16:07:12 20.3 18 15.8
003B5D8C 2019-03-03 15:37:22 20.2 18 15.9
003B5D8C 2019-03-03 15:07:32 20.3 18 15.6
003B5D8C 2019-03-03 14:37:42 20.2 18 15.6
003B5D8C 2019-03-03 14:07:50 20.3 18 15.6
003B5D8C 2019-03-03 13:37:58 20.2 18 15.6
003B5D8C 2019-03-03 13:08:07 20.2 18 15.8
003B5D8C 2019-03-03 12:38:18 20.2 18 15.8
003B5D8C 2019-03-03 12:08:30 20.2 18 15.9
003B5D8C 2019-03-03 11:38:37 20.2 18 18.9
003B5D8C 2019-03-03 11:08:47 20.2 18 18.9
003B5D8C 2019-03-03 10:38:56 20.2 18 18.8
003B5D8C 2019-03-03 10:09:05 20.2 18 20.6
003B5D8C 2019-03-03 09:39:13 20.2 18 20.7
003B5D8C 2019-03-03 09:09:22 20.3 18 20.7
003B5D8C 2019-03-03 08:39:31 20.3 18 20.6
003B5D8C 2019-03-03 08:09:40 20.3 18 20.5
003B5D8C 2019-03-03 07:39:51 20.3 18 20.5
003B5D8C 2019-03-03 07:10:02 20.3 18 20.5
003B5D8C 2019-03-03 06:40:13 20.3 18 20.4
003B5D8C 2019-03-03 06:10:25 20.3 18 20.3
003B5D8C 2019-03-03 05:40:32 20.3 18 20.3
003B5D8C 2019-03-03 05:10:40 20.3 18 20.3
003B5D8C 2019-03-03 04:40:48 20.4 18 20.3
003B5D8C 2019-03-03 04:10:57 20.3 18 20.2
003B5D8C 2019-03-03 03:41:06 20.4 18 20.2
003B5D8C 2019-03-03 03:11:16 20.4 18 20.1
003B5D8C 2019-03-03 02:41:26 20.4 18 20.1
003B5D8C 2019-03-03 02:11:02 20.4 18 20.3
003B5D8C 2019-03-03 01:41:12 20.4 18 20.3
003B5D8C 2019-03-03 01:11:23 20.4 18 20.2
003B5D8C 2019-03-03 00:41:32 20.4 18 20.2
003B5D8C 2019-03-03 00:11:42 20.4 18 20.2
003B5D8C 2019-03-02 23:41:50 20.4 18 18.2
003B5D8C 2019-03-02 23:11:59 20.4 18 18.1
003B5D8C 2019-03-02 22:42:07 20.4 18 18.1
003B5D8C 2019-03-02 22:12:17 20.4 17 14
003B5D8C 2019-03-02 21:42:27 20.4 17 14
003B5D8C 2019-03-02 21:12:37 20.4 17 14
003B5D8C 2019-03-02 20:42:48 20.4 17 14.1
003B5D8C 2019-03-02 20:12:57 20.5 17 14.3
003B5D8C 2019-03-02 19:43:06 20.5 17 14.5
003B5D8C 2019-03-02 19:13:17 20.5 17 14.7
003B5D8C 2019-03-02 18:43:23 20.5 17 14.9
003B5D8C 2019-03-02 18:13:33 20.5 17 18.4
003B5D8C 2019-03-02 17:43:43 20.6 17 18.4
003B5D8C 2019-03-02 17:13:55 20.6 17 18.5
003B5D8C 2019-03-02 16:44:04 20.6 17 18.5
003B5D8C 2019-03-02 16:14:11 20.6 17 18.5
003B5D8C 2019-03-02 15:44:22 20.6 17 18.6
003B5D8C 2019-03-02 15:14:31 20.5 17 18.7
003B5D8C 2019-03-02 14:44:40 20.4 16 18.7
003B5D8C 2019-03-02 14:14:50 20.5 16 18.5
003B5D8C 2019-03-02 13:44:59 20.5 16 18.4
003B5D8C 2019-03-02 13:15:07 20.4 16 18.5
003B5D8C 2019-03-02 12:45:17 20.4 16 18.6
003B5D8C 2019-03-02 12:15:25 20.4 16 18.8
003B5D8C 2019-03-02 11:45:32 20.4 16 18.8
003B5D8C 2019-03-02 11:15:38 20.4 16 18.8
003B5D8C 2019-03-02 10:45:44 20.4 16 19.1
003B5D8C 2019-03-02 10:15:49 20.4 16 19.1
003B5D8C 2019-03-02 09:45:55 20.4 15 19.2
003B5D8C 2019-03-02 09:16:02 20.4 15 19.4
003B5D8C 2019-03-02 08:46:09 20.4 15 19.5
003B5D8C 2019-03-02 08:16:15 20.5 15 19.6
003B5D8C 2019-03-02 07:46:22 20.5 15 19.5
003B5D8C 2019-03-02 07:16:30 20.5 15 19.5
003B5D8C 2019-03-02 06:46:37 20.5 15 19.6
003B5D8C 2019-03-02 06:16:45 20.5 15 19.8
003B5D8C 2019-03-02 05:46:52 20.5 15 18.1
003B5D8C 2019-03-02 05:16:58 20.5 15 18.2
003B5D8C 2019-03-02 04:47:06 20.5 15 18.7
003B5D8C 2019-03-02 04:17:14 20.5 14 18.8
003B5D8C 2019-03-02 03:47:23 20.6 14 19.1
003B5D8C 2019-03-02 03:17:32 20.6 14 19.1
003B5D8C 2019-03-02 02:47:42 20.6 14 18.9
003B5D8C 2019-03-02 02:17:48 20.6 14 19.2
003B5D8C 2019-03-02 01:47:57 20.9 14 19.3
003B5D8C 2019-03-02 01:46:49 20.7 14 19.4
003B5D8C 2019-03-02 01:16:57 20.7 14 19.4
003B5D8C 2019-03-02 00:47:06 20.8 14 19.6
003B5D8C 2019-03-02 00:17:15 20.8 14 19.6
003B5D8C 2019-03-01 23:47:22 20.8 14 21.1
003B5D8C 2019-03-01 23:17:29 20.9 13 21.1
003B5D8C 2019-03-01 22:47:39 20.9 13 21
003B5D8C 2019-03-01 22:17:46 21 13 21.1
003B5D8C 2019-03-01 21:47:53 21 13 21
003B5D8C 2019-03-01 21:17:59 21 13 21.1
003B5D8C 2019-03-01 20:48:07 21 13 21.1
003B5D8C 2019-03-01 20:18:14 21 13 21
003B5D8C 2019-03-01 19:48:22 21 13 21
003B5D8C 2019-03-01 19:18:31 21 13 21
003B5D8C 2019-03-01 18:48:39 21.1 13 21.1
003B5D8C 2019-03-01 18:18:46 21.2 13 20.9
003B5D8C 2019-03-01 17:48:51 21.2 13 20.9
003B5D8C 2019-03-01 17:18:57 21.3 14 20.7
003B5D8C 2019-03-01 16:49:03 21.3 14 20.5
003B5D8C 2019-03-01 16:19:13 21.3 15 20.6
003B5D8C 2019-03-01 15:49:22 21.2 15 20.6
003B5D8C 2019-03-01 15:19:34 21.2 15 20.6
003B5D8C 2019-03-01 14:49:41 21 15 20.9
003B5D8C 2019-03-01 14:19:51 20.9 15 20.7
003B5D8C 2019-03-01 13:50:01 20.9 16 20.9
003B5D8C 2019-03-01 13:20:11 20.9 16 20.9
003B5D8C 2019-03-01 12:50:21 20.9 16 20.9
003B5D8C 2019-03-01 12:20:30 21 16 20.8
003B5D8C 2019-03-01 11:50:40 20.9 17 20.7
003B5D8C 2019-03-01 11:20:49 20.9 17 19.5
003B5D8C 2019-03-01 10:50:57 20.9 17 19.6
003B5D8C 2019-03-01 10:21:06 20.7 17 19.6
003B5D8C 2019-03-01 09:51:15 20.7 17 19.8
003B5D8C 2019-03-01 09:21:23 20.6 17 19.8
003B5D8C 2019-03-01 08:51:30 20.5 17 19.7
003B5D8C 2019-03-01 08:21:38 20.6 17 19.6
003B5D8C 2019-03-01 07:51:46 20.6 18 19.8
003B5D8C 2019-03-01 07:21:55 20.6 18 19.8
003B5D8C 2019-03-01 06:52:02 20.6 18 19.8
003B5D8C 2019-03-01 06:22:11 20.6 18 19.6
003B5D8C 2019-03-01 05:52:19 20.6 19 19.8
003B5D8C 2019-03-01 05:22:26 20.6 19 20.1
003B5D8C 2019-03-01 04:52:35 20.7 19 20
003B5D8C 2019-03-01 04:22:44 20.7 19 19.9
003B5D8C 2019-03-01 03:52:51 20.7 20 19.7
003B5D8C 2019-03-01 03:23:01 20.7 20 19.7
003B5D8C 2019-03-01 02:53:10 20.7 20 19.4
003B5D8C 2019-03-01 02:23:17 20.7 20 19.5
003B5D8C 2019-03-01 01:53:27 20.7 21 19.2
003B5D8C 2019-03-01 01:23:35 20.9 21 18.9
003B5D8C 2019-03-01 01:22:25 20.8 21 19
003B5D8C 2019-03-01 00:52:33 20.8 21 18.9
003B5D8C 2019-03-01 00:22:41 20.8 21 19
003B5D8C 2019-02-28 23:52:50 20.8 22 20.4
003B5D8C 2019-02-28 23:22:58 20.8 22 20.4
003B5D8C 2019-02-28 22:53:08 20.8 22 21.7
003B5D8C 2019-02-28 22:23:17 20.9 23 21.4
003B5D8C 2019-02-28 21:53:24 20.9 23 21.4
003B5D8C 2019-02-28 21:23:32 20.9 23 21.4
003B5D8C 2019-02-28 20:53:41 21 23 21.4
003B5D8C 2019-02-28 20:23:50 21 23 21.3
003B5D8C 2019-02-28 19:53:58 21 23 21.3
003B5D8C 2019-02-28 19:24:07 21.1 24 21.4
003B5D8C 2019-02-28 18:54:15 21.1 24 21.4
003B5D8C 2019-02-28 18:24:23 21.2 24 21.2
003B5D8C 2019-02-28 17:54:32 21.3 25 21.1
003B5D8C 2019-02-28 17:24:41 21.4 25 20.8
003B5D8C 2019-02-28 16:54:49 21.5 26 20.8
003B5D8C 2019-02-28 16:24:57 21.4 26 20.7
003B5D8C 2019-02-28 15:55:06 21.4 26 20.7
003B5D8C 2019-02-28 15:25:15 21.3 25 20.7
003B5D8C 2019-02-28 14:55:25 21.3 25 21
003B5D8C 2019-02-28 14:25:34 21.3 25 21
003B5D8C 2019-02-28 13:55:43 21.3 25 21
003B5D8C 2019-02-28 12:26:10 21.2 24 21
003B5D8C 2019-02-28 11:56:20 21.2 24 21
003B5D8C 2019-02-28 11:26:29 21.1 24 21
003B5D8C 2019-02-28 10:56:38 21 24 20.9
003B5D8C 2019-02-28 10:26:47 20.9 23 19.3
003B5D8C 2019-02-28 09:56:57 20.9 23 19.2
003B5D8C 2019-02-28 09:27:05 20.8 22 16.5
003B5D8C 2019-02-28 08:57:14 20.8 22 16.6
003B5D8C 2019-02-28 08:27:22 20.8 22 16.6
003B5D8C 2019-02-28 07:57:31 20.8 22 16.5
003B5D8C 2019-02-28 07:27:38 20.8 22 16.7
003B5D8C 2019-02-28 06:57:46 20.8 22 17.2
003B5D8C 2019-02-28 06:27:54 20.8 22 17.2
003B5D8C 2019-02-28 05:58:01 20.8 22 17.2
003B5D8C 2019-02-28 05:28:10 20.8 22 19.6
003B5D8C 2019-02-28 04:58:17 20.8 22 19.7
003B5D8C 2019-02-28 04:28:27 20.8 22 19.7
003B5D8C 2019-02-28 03:58:33 20.9 22 19.9
003B5D8C 2019-02-28 03:28:41 20.9 22 20
003B5D8C 2019-02-28 02:58:50 20.8 22 20
003B5D8C 2019-02-28 02:28:58 20.9 22 20
003B5D8C 2019-02-28 01:59:06 20.9 22 20
003B5D8C 2019-02-28 01:29:16 20.9 22 19.7
003B5D8C 2019-02-28 00:59:24 20.9 22 19.6
003B5D8C 2019-02-28 00:28:58 21 22 19.7
003B5D8C 2019-02-27 23:59:08 21 22 19.8
003B5D8C 2019-02-27 23:29:18 21 22 19.8
003B5D8C 2019-02-27 22:59:24 21 23 19.9
003B5D8C 2019-02-27 22:29:34 21.1 23 19.8
003B5D8C 2019-02-27 21:59:43 21.1 23 19.8
003B5D8C 2019-02-27 21:29:52 21.1 23 20.2
003B5D8C 2019-02-27 21:00:03 21.2 23 20.1
003B5D8C 2019-02-27 20:30:10 21.2 23 20.3
003B5D8C 2019-02-27 20:00:19 21.3 23 20.5
003B5D8C 2019-02-27 19:30:28 21.3 23 20.5
003B5D8C 2019-02-27 19:00:37 21.4 23 20.7
003B5D8C 2019-02-27 18:30:47 21.5 24 20.6
003B5D8C 2019-02-27 18:00:57 21.6 24 20.6
003B5D8C 2019-02-27 17:31:07 21.7 25 19
003B5D8C 2019-02-27 17:01:15 21.7 25 19.1
003B5D8C 2019-02-27 16:31:23 21.7 26 19.2
003B5D8C 2019-02-27 16:01:31 21.6 26 19
003B5D8C 2019-02-27 15:01:48 21.5 26 19
003B5D8C 2019-02-27 14:31:54 21.4 26 19.1
003B5D8C 2019-02-27 14:02:01 21.3 26 19.1
003B5D8C 2019-02-27 13:32:08 21.3 25 19.2
003B5D8C 2019-02-27 13:02:15 21.3 25 19.4
003B5D8C 2019-02-27 12:32:22 21.2 25 19.4
003B5D8C 2019-02-27 12:02:28 21.2 25 19.5
003B5D8C 2019-02-27 11:32:34 21.2 25 19.4
003B5D8C 2019-02-27 11:02:41 21.1 25 19.6
003B5D8C 2019-02-27 10:32:49 21.1 25 19.7
003B5D8C 2019-02-27 10:02:55 21 24 19.6
003B5D8C 2019-02-27 09:33:02 20.9 24 19.9
003B5D8C 2019-02-27 09:03:10 20.9 24 20
003B5D8C 2019-02-27 08:33:18 20.9 24 19.7
003B5D8C 2019-02-27 08:03:27 20.9 23 19.9
003B5D8C 2019-02-27 07:33:36 20.9 23 19.8
003B5D8C 2019-02-27 07:03:43 20.9 23 19.8
003B5D8C 2019-02-27 06:33:51 21 23 19.7
003B5D8C 2019-02-27 06:03:58 21 23 19.8
003B5D8C 2019-02-27 05:34:08 21 23 19.9
003B5D8C 2019-02-27 05:04:16 21 23 19.8
003B5D8C 2019-02-27 04:34:23 21 23 19.7
003B5D8C 2019-02-27 04:04:30 21 23 19.6
003B5D8C 2019-02-27 03:34:38 21.1 23 19.9
003B5D8C 2019-02-27 03:04:46 21.1 23 20
003B5D8C 2019-02-27 02:34:56 21.1 23 20.1
003B5D8C 2019-02-27 02:05:03 21.1 23 20.3
003B5D8C 2019-02-27 01:35:10 21.2 23 20.3
003B5D8C 2019-02-27 01:05:18 21.2 23 20.2
003B5D8C 2019-02-27 00:35:25 21.2 23 20
003B5D8C 2019-02-27 00:05:34 21.5 23 20
003B5D8C 2019-02-27 00:04:23 21.3 24 21.4
003B5D8C 2019-02-26 23:34:31 21.3 24 22.5
003B5D8C 2019-02-26 23:04:39 21.4 24 23.2
003B5D8C 2019-02-26 22:34:45 21.4 24 23.2
003B5D8C 2019-02-26 22:04:53 21.5 24 23.2
003B5D8C 2019-02-26 21:35:00 21.5 24 23.8
003B5D8C 2019-02-26 21:05:07 21.6 24 24.4
003B5D8C 2019-02-26 20:35:15 21.6 24 25
003B5D8C 2019-02-26 20:05:23 21.6 24 25.5
003B5D8C 2019-02-26 19:35:32 21.7 24 25.9
003B5D8C 2019-02-26 19:05:41 21.8 24 26.2
003B5D8C 2019-02-26 18:35:49 21.8 24 26.6
003B5D8C 2019-02-26 18:05:55 21.9 24 26.9
003B5D8C 2019-02-26 17:36:01 22 24 27.2
003B5D8C 2019-02-26 17:06:09 22 24 27.5
003B5D8C 2019-02-26 16:36:18 21.9 25 27.8
003B5D8C 2019-02-26 16:06:24 21.8 25 28
003B5D8C 2019-02-26 15:36:32 21.7 25 28.3
003B5D8C 2019-02-26 15:06:39 21.6 25 28.5
003B5D8C 2019-02-26 14:36:46 21.6 24 28.7
003B5D8C 2019-02-26 14:06:54 21.5 24 28.9
003B5D8C 2019-02-26 13:37:04 21.5 25 29.1
003B5D8C 2019-02-26 13:07:10 21.5 25 29.3
003B5D8C 2019-02-26 12:37:20 21.4 25 29.5
003B5D8C 2019-02-26 12:07:26 21.4 25 29.5
003B5D8C 2019-02-26 11:07:41 21.2 24 29.5
003B5D8C 2019-02-26 10:37:48 21.1 24 29.5
003B5D8C 2019-02-26 10:07:55 21 24 29.5
003B5D8C 2019-02-26 09:38:04 21 23 29.6
003B5D8C 2019-02-26 09:08:12 20.9 23 29.8
003B5D8C 2019-02-26 08:38:20 20.9 23 29.8
003B5D8C 2019-02-26 08:08:28 20.9 23 29.8
003B5D8C 2019-02-26 07:38:34 20.9 23 29.8
003B5D8C 2019-02-26 07:08:43 20.9 23 29.8
003B5D8C 2019-02-26 06:38:50 20.9 22 29.8
003B5D8C 2019-02-26 06:08:58 21 22 29.8
003B5D8C 2019-02-26 05:39:06 21 22 29.8
003B5D8C 2019-02-26 05:09:12 21 22 29.8
003B5D8C 2019-02-26 04:39:18 21 22 29.8
003B5D8C 2019-02-26 04:09:25 21 22 29.8
003B5D8C 2019-02-26 03:39:31 21 22 29.6
003B5D8C 2019-02-26 03:09:38 21 22 29.5
003B5D8C 2019-02-26 02:39:45 21 22 29.3
003B5D8C 2019-02-26 02:09:52 21 22 29.3
003B5D8C 2019-02-26 01:40:00 21 22 29.1
003B5D8C 2019-02-26 01:10:07 21.1 21 28.9
003B5D8C 2019-02-26 00:40:14 21.1 21 28.6
003B5D8C 2019-02-26 00:10:20 21.1 21 28.4
003B5D8C 2019-02-25 23:40:29 21.2 21 28.1
003B5D8C 2019-02-25 23:10:04 21.2 21 27.9
003B5D8C 2019-02-25 22:40:12 21.3 21 27.6
003B5D8C 2019-02-25 22:10:19 21.3 21 27.3
003B5D8C 2019-02-25 21:40:27 21.3 21 26.9
003B5D8C 2019-02-25 21:10:34 21.4 21 26.6
003B5D8C 2019-02-25 20:40:42 21.5 21 26.2
003B5D8C 2019-02-25 20:10:50 21.5 21 25.7
003B5D8C 2019-02-25 19:40:56 21.5 21 25.3
003B5D8C 2019-02-25 19:11:03 21.6 21 24.7
003B5D8C 2019-02-25 18:41:10 21.6 21 24.1
003B5D8C 2019-02-25 18:11:18 21.6 22 23.4
003B5D8C 2019-02-25 17:41:25 21.7 22 22.6
003B5D8C 2019-02-25 17:11:32 21.7 22 21.5
003B5D8C 2019-02-25 16:41:40 21.7 22 20.1
003B5D8C 2019-02-25 16:11:47 21.7 22 18
003B5D8C 2019-02-25 15:41:56 21.7 22 18
003B5D8C 2019-02-25 15:12:01 21.6 23 17.9
003B5D8C 2019-02-25 14:42:09 21.5 23 17.7
003B5D8C 2019-02-25 14:12:16 21.4 23 13
003B5D8C 2019-02-25 13:42:24 21.3 23 13.1
003B5D8C 2019-02-25 13:12:31 21.2 22 13.2
003B5D8C 2019-02-25 12:42:39 21.1 22 13.4
003B5D8C 2019-02-25 12:12:46 21.1 22 13.9
003B5D8C 2019-02-25 11:42:55 21.1 23 13.9
003B5D8C 2019-02-25 11:13:03 21 23 18
003B5D8C 2019-02-25 10:43:13 20.9 23 18.1
003B5D8C 2019-02-25 10:13:19 20.8 22 18.2
003B5D8C 2019-02-25 09:13:37 20.7 22 18.2
003B5D8C 2019-02-25 08:43:48 20.6 22 18.2
003B5D8C 2019-02-25 08:13:52 20.6 22 18.2
003B5D8C 2019-02-25 07:14:05 20.7 22 18.3
003B5D8C 2019-02-25 06:14:20 20.7 22 18.3
003B5D8C 2019-02-25 05:44:27 20.7 22 18.3
003B5D8C 2019-02-25 05:14:35 20.7 22 18.2
003B5D8C 2019-02-25 04:44:44 20.7 22 18.3
003B5D8C 2019-02-25 04:14:50 20.7 22 18.1
003B5D8C 2019-02-25 03:44:58 20.7 23 18.1
003B5D8C 2019-02-25 03:15:05 20.7 23 18.2
003B5D8C 2019-02-25 02:45:14 20.7 23 18.2
003B5D8C 2019-02-25 02:15:23 20.7 23 18.2
003B5D8C 2019-02-25 01:45:30 20.7 23 18.3
003B5D8C 2019-02-25 01:15:37 20.7 23 18.2
003B5D8C 2019-02-25 00:45:47 20.7 23 18.3
003B5D8C 2019-02-25 00:15:57 20.7 23 18.3
003B5D8C 2019-02-24 23:46:03 20.7 23 18.3
003B5D8C 2019-02-24 23:16:12 20.8 24 18.4
003B5D8C 2019-02-24 22:46:18 20.8 24 18.4
003B5D8C 2019-02-24 22:15:52 20.8 24 18.2
003B5D8C 2019-02-24 21:45:59 20.8 24 18.3
003B5D8C 2019-02-24 21:16:05 20.8 24 14.5
003B5D8C 2019-02-24 20:46:13 20.8 24 14.5
003B5D8C 2019-02-24 20:16:18 20.8 23 14.4
003B5D8C 2019-02-24 19:46:26 20.8 23 14.3
003B5D8C 2019-02-24 19:16:32 20.8 23 14.4
003B5D8C 2019-02-24 18:46:36 20.8 23 14.5
003B5D8C 2019-02-24 18:16:42 20.9 23 14.5
003B5D8C 2019-02-24 17:46:48 20.8 23 14.4
003B5D8C 2019-02-24 17:16:53 20.8 23 14.4
003B5D8C 2019-02-24 16:47:01 20.8 23 14.4
003B5D8C 2019-02-24 16:17:08 20.8 23 14.2
003B5D8C 2019-02-24 15:47:13 20.8 23 14
003B5D8C 2019-02-24 14:47:26 20.8 22 14.2
003B5D8C 2019-02-24 14:17:36 20.8 22 14.1
003B5D8C 2019-02-24 13:47:40 20.8 22 14.1
003B5D8C 2019-02-24 13:17:50 20.8 22 14
003B5D8C 2019-02-24 12:47:54 20.8 22 14.1
003B5D8C 2019-02-24 12:18:00 20.8 22 13.9
003B5D8C 2019-02-24 11:48:09 20.8 22 14.1
003B5D8C 2019-02-24 11:18:15 20.8 22 14
003B5D8C 2019-02-24 10:48:21 20.8 22 14
003B5D8C 2019-02-24 10:18:30 20.8 22 13.7
003B5D8C 2019-02-24 08:48:54 20.8 21 13.8
003B5D8C 2019-02-24 08:19:01 20.8 21 13.9
003B5D8C 2019-02-24 07:49:08 20.8 21 13.7
003B5D8C 2019-02-24 07:19:18 20.9 21 13.4
003B5D8C 2019-02-24 06:49:24 20.9 21 13.4
003B5D8C 2019-02-24 06:19:34 20.9 21 13.4
003B5D8C 2019-02-24 05:49:40 20.9 21 13.3
003B5D8C 2019-02-24 05:19:46 20.9 21 13.1
003B5D8C 2019-02-24 04:49:53 20.9 21 12.6
003B5D8C 2019-02-24 04:20:01 20.9 21 12.9
003B5D8C 2019-02-24 03:50:09 20.9 21 13.3
003B5D8C 2019-02-24 03:20:17 20.9 21 17.9
003B5D8C 2019-02-24 02:50:30 20.9 21 17.9
003B5D8C 2019-02-24 01:50:42 21 21 18
003B5D8C 2019-02-24 01:20:53 21 20 17.9
003B5D8C 2019-02-24 00:50:59 21 20 17.9
003B5D8C 2019-02-24 00:21:08 21 20 17.9
003B5D8C 2019-02-23 23:51:15 21 20 17.9
003B5D8C 2019-02-23 23:21:23 21 20 17.8
003B5D8C 2019-02-23 22:51:29 21.1 20 17.9
003B5D8C 2019-02-23 22:21:35 21.1 20 17.8
003B5D8C 2019-02-23 21:51:41 21.3 19 17.9
003B5D8C 2019-02-23 21:50:31 21.1 19 18.1
003B5D8C 2019-02-23 21:20:38 21.2 19 18
003B5D8C 2019-02-23 20:20:50 21.2 19 18
003B5D8C 2019-02-23 19:50:57 21.3 19 18.1
003B5D8C 2019-02-23 19:21:04 21.3 18 18.2
003B5D8C 2019-02-23 18:51:14 21.3 18 18.3
003B5D8C 2019-02-23 18:21:20 21.3 18 18.3
003B5D8C 2019-02-23 17:51:28 21.3 18 18.3
003B5D8C 2019-02-23 17:21:35 21.3 17 18.3
003B5D8C 2019-02-23 16:51:42 21.3 17 18.3
003B5D8C 2019-02-23 16:21:52 21.3 17 18.3
003B5D8C 2019-02-23 15:52:00 21.1 17 18.3
003B5D8C 2019-02-23 15:22:10 21 17 18.3
003B5D8C 2019-02-23 14:52:15 21 16 18.2
003B5D8C 2019-02-23 14:22:24 20.9 16 14.3
003B5D8C 2019-02-23 13:52:32 20.9 16 14.3
003B5D8C 2019-02-23 13:22:41 20.9 16 14.2
003B5D8C 2019-02-23 12:52:50 20.9 16 14.1
003B5D8C 2019-02-23 12:22:58 20.9 15 14.2
003B5D8C 2019-02-23 11:53:08 20.9 15 14.3
003B5D8C 2019-02-23 11:23:16 20.9 15 14.3
003B5D8C 2019-02-23 10:53:28 20.9 15 14.5
003B5D8C 2019-02-23 10:23:34 20.9 15 18.2
003B5D8C 2019-02-23 09:53:45 20.9 15 18.2
003B5D8C 2019-02-23 09:23:53 20.9 14 18.2
003B5D8C 2019-02-23 08:54:04 20.9 14 18
003B5D8C 2019-02-23 08:24:13 20.9 14 18.1
003B5D8C 2019-02-23 07:54:21 20.9 14 18
003B5D8C 2019-02-23 07:24:30 20.9 14 17.9
003B5D8C 2019-02-23 06:54:40 20.9 13 17.8
003B5D8C 2019-02-23 06:24:48 20.9 13 17.9
003B5D8C 2019-02-23 05:54:55 20.9 13 17.8
003B5D8C 2019-02-23 05:25:04 20.9 13 17.8
003B5D8C 2019-02-23 04:55:11 20.9 13 17.8
003B5D8C 2019-02-23 04:25:18 20.9 12 17.8
003B5D8C 2019-02-23 03:55:25 20.9 12 17.9
003B5D8C 2019-02-23 03:25:34 20.9 12 18
003B5D8C 2019-02-23 02:55:41 20.9 12 18.1
003B5D8C 2019-02-23 02:25:49 20.9 12 18.1
003B5D8C 2019-02-23 01:55:56 20.9 12 18.2
003B5D8C 2019-02-23 01:26:06 20.9 12 18.2
003B5D8C 2019-02-23 00:56:11 20.9 12 18.1
003B5D8C 2019-02-23 00:26:19 21 11 18.1
003B5D8C 2019-02-22 23:56:28 21 11 18.2
003B5D8C 2019-02-22 23:26:37 21 11 18.4
003B5D8C 2019-02-22 22:56:46 21.1 11 18.7
003B5D8C 2019-02-22 22:26:54 21 11 18.6
003B5D8C 2019-02-22 21:57:01 21 11 15.2
003B5D8C 2019-02-22 21:27:09 21.1 11 15.4
003B5D8C 2019-02-22 20:56:45 21.1 11 15.8
003B5D8C 2019-02-22 20:26:53 21.1 11 16
003B5D8C 2019-02-22 19:57:01 21.2 11 16
003B5D8C 2019-02-22 19:27:11 21.2 11 16
003B5D8C 2019-02-22 18:57:19 21.2 11 16.1
003B5D8C 2019-02-22 18:27:25 21.3 11 16.1
003B5D8C 2019-02-22 17:57:33 21.3 11 16.5
003B5D8C 2019-02-22 17:27:41 21.3 11 16.7
003B5D8C 2019-02-22 16:57:50 21.3 12 16.7
003B5D8C 2019-02-22 16:27:58 21.3 12 16.7
003B5D8C 2019-02-22 15:58:10 21.2 12 16.7
003B5D8C 2019-02-22 15:28:16 21.1 12 17
003B5D8C 2019-02-22 14:58:21 21 12 16.8
003B5D8C 2019-02-22 14:28:31 20.9 12 16.7
003B5D8C 2019-02-22 13:58:38 20.9 12 16.7
003B5D8C 2019-02-22 13:28:44 20.9 12 16.7
003B5D8C 2019-02-22 12:58:52 20.8 12 16.9
003B5D8C 2019-02-22 12:29:00 20.8 12 17.2
003B5D8C 2019-02-22 11:59:07 20.7 12 17.2
003B5D8C 2019-02-22 11:29:14 20.7 12 17.2
003B5D8C 2019-02-22 10:59:23 20.6 12 17.2
003B5D8C 2019-02-22 10:29:31 20.5 12 16.8
003B5D8C 2019-02-22 09:59:36 20.5 12 17
003B5D8C 2019-02-22 09:29:43 20.5 12 17.1
003B5D8C 2019-02-22 08:59:49 20.5 12 17.1
003B5D8C 2019-02-22 08:30:00 20.5 12 16.7
003B5D8C 2019-02-22 08:00:05 20.5 13 16.8
003B5D8C 2019-02-22 07:30:13 20.5 13 16.8
003B5D8C 2019-02-22 07:00:22 20.5 13 17
003B5D8C 2019-02-22 06:30:29 20.6 13 17.1
003B5D8C 2019-02-22 06:00:38 20.6 13 16.8
003B5D8C 2019-02-22 05:30:45 20.6 13 19.3
003B5D8C 2019-02-22 05:00:54 20.6 13 19.4
003B5D8C 2019-02-22 04:31:01 20.6 13 19.4
003B5D8C 2019-02-22 04:01:10 20.6 13 19.4
003B5D8C 2019-02-22 03:31:18 20.6 13 19.2
003B5D8C 2019-02-22 03:01:25 20.7 13 19.2
003B5D8C 2019-02-22 02:31:32 20.7 13 19.1
003B5D8C 2019-02-22 02:01:39 20.7 13 19.1
003B5D8C 2019-02-22 01:31:45 20.7 13 21.9
003B5D8C 2019-02-22 01:01:53 20.7 13 22.8
003B5D8C 2019-02-22 00:32:01 20.7 13 23.6
003B5D8C 2019-02-22 00:02:10 20.7 13 24.3
003B5D8C 2019-02-21 23:32:20 20.8 13 24.8
003B5D8C 2019-02-21 23:02:26 20.8 13 24.8
003B5D8C 2019-02-21 22:32:40 20.8 13 24.8
003B5D8C 2019-02-21 22:02:46 20.9 13 24.8
003B5D8C 2019-02-21 21:32:55 20.9 13 24.8
003B5D8C 2019-02-21 21:03:05 20.9 13 24.8
003B5D8C 2019-02-21 20:33:15 21.2 13 24.7
003B5D8C 2019-02-21 20:32:08 21 13 24.7
003B5D8C 2019-02-21 20:02:17 21 13 24.7
003B5D8C 2019-02-21 19:32:32 21.1 13 24.7
003B5D8C 2019-02-21 19:02:41 21.1 13 24.6
003B5D8C 2019-02-21 18:32:49 21.2 13 24.6
003B5D8C 2019-02-21 18:02:57 21.3 14 23.9
003B5D8C 2019-02-21 17:33:08 21.2 14 23.9
003B5D8C 2019-02-21 17:03:19 21.1 14 23.9
003B5D8C 2019-02-21 16:33:28 21 14 23.9
003B5D8C 2019-02-21 16:03:40 20.9 14 23.9
003B5D8C 2019-02-21 15:33:48 20.8 14 23.9
003B5D8C 2019-02-21 15:03:57 20.8 14 23.9
003B5D8C 2019-02-21 14:34:08 20.8 14 23.9
003B5D8C 2019-02-21 14:04:12 20.7 15 23.2
003B5D8C 2019-02-21 13:34:21 20.7 15 22.3
003B5D8C 2019-02-21 13:04:30 20.7 15 21.1
003B5D8C 2019-02-21 12:34:44 20.7 15 21.1
003B5D8C 2019-02-21 12:04:49 20.7 16 19.5
003B5D8C 2019-02-21 11:34:57 20.7 16 17
003B5D8C 2019-02-21 11:05:09 20.7 16 19.5
003B5D8C 2019-02-21 10:35:17 20.7 16 19.5
003B5D8C 2019-02-21 09:35:36 20.7 17 21.1
003B5D8C 2019-02-21 08:06:00 20.7 17 21.2
003B5D8C 2019-02-21 07:06:20 20.7 18 22.3
003B5D8C 2019-02-21 06:36:26 20.7 18 23.2
003B5D8C 2019-02-21 05:06:54 20.7 18 23.3
003B5D8C 2019-02-21 04:07:07 20.7 19 23.3
003B5D8C 2019-02-21 03:37:19 20.7 19 23.3
003B5D8C 2019-02-21 03:07:26 20.8 19 23.4
003B5D8C 2019-02-21 01:37:51 20.8 19 23.4
003B5D8C 2019-02-20 23:38:22 20.8 20 23.5
003B5D8C 2019-02-20 22:08:50 20.8 20 23.5
003B5D8C 2019-02-20 21:39:01 20.8 20 23.5
003B5D8C 2019-02-20 20:09:24 21 20 23.5
003B5D8C 2019-02-20 18:38:42 20.9 21 23.6
003B5D8C 2019-02-20 18:08:47 20.9 21 23.6
003B5D8C 2019-02-20 17:38:56 20.9 22 23.6
003B5D8C 2019-02-20 15:09:33 20.9 23 23.7